GFSGBSN_con_sbcape_000.txt.gz
CAPE
0 0 3 7 11 7 6 4 1 3 1 3 1 0 1 0 0 1 0 0 0 0 0 1 1 0 0 28 0 0 45 228 42 0 0 0 0 0 0 0 0 0 0 0 0 0 0
0 0 5 10 10 0 3 1 2 1 1 0 0 0 0 0 5 2 0 0 0 0 0 0 0 1 0 0 0 0 0 0 0 0 0 0 0 0 0 0 0 0 0 0 0 0 0
0 0 4 4 0 1 0 1 0 0 1 1 1 1 0 0 6 4 0 0 0 0 0 1 0 0 0 2 0 0 0 0 0 0 0 0 0 0 0 0 0 0 0 0 0 0 0
0 0 1 0 0 0 0 0 0 0 0 0 0 0 1 2 0 0 0 0 0 0 0 0 0 0 0 0 0 0 0 0 0 0 0 0 0 0 0 0 0 0 0 0 0 0 0
0 0 0 0 0 1 0 1 0 0 0 0 2 0 0 0 0 0 0 0 0 0 0 0 0 0 0 0 0 0 0 0 0 0 0 0 0 0 0 0 0 0 0 0 0 0 0
0 0 0 0 0 0 0 0 0 0 0 1 0 0 0 0 0 0 0 0 0 0 0 0 0 4 5 28 0 0 0 0 0 0 0 0 0 0 0 0 0 0 0 0 0 0 0
0 0 0 0 0 0 0 0 0 0 0 0 0 0 0 0 0 0 0 0 0 0 0 0 0 0 0 0 0 0 0 0 0 0 0 0 0 0 0 0 0 0 0 0 0 0 0
0 0 0 0 0 1 2 1 0 0 0 0 0 0 0 0 0 0 0 120 113 76 3 0 0 0 0 0 0 0 0 0 0 0 0 0 0 0 0 0 0 0 0 0 0 0 0
0 0 0 0 0 0 1 0 0 0 0 0 0 0 0 0 0 0 0 0 21 100 4 0 0 0 0 0 0 0 0 0 0 0 0 0 0 0 0 0 0 0 0 0 0 0 0
0 0 0 0 0 0 0 0 0 0 0 0 0 0 0 0 0 0 0 0 1 0 0 0 0 0 0 0 0 0 0 0 0 0 0 0 0 0 0 0 0 0 0 0 0 0 0
0 0 0 0 0 0 0 0 0 0 0 0 0 0 0 0 0 155 125 224 124 6 0 0 0 0 0 0 0 0 0 0 0 0 0 0 0 0 0 0 0 0 0 0 0 0 0
0 0 0 0 0 0 0 0 0 0 0 0 0 0 0 0 0 22 355 208 0 12 0 0 0 0 0 0 0 0 0 0 0 0 0 0 0 0 0 0 0 0 0 0 0 0 0
0 0 0 0 0 0 0 0 0 0 0 0 0 0 0 0 745 349 273 0 0 34 0 0 0 0 0 0 0 0 0 0 0 0 0 0 0 0 0 0 0 0 0 10 10 10 9
0 0 0 0 0 0 0 0 0 0 0 0 0 0 0 0 919 385 0 0 4 0 0 0 0 0 0 0 0 0 0 0 0 0 0 0 0 0 0 0 0 0 0 0 2 0 0
0 0 0 0 0 0 0 0 0 0 0 0 0 0 586 491 754 0 38 190 124 0 0 0 0 0 0 0 0 0 0 0 0 0 0 0 0 0 0 0 0 0 0 0 0 0 0
0 0 0 0 0 0 0 0 0 0 0 0 0 65 16 295 81 0 88 288 98 0 0 0 0 0 0 0 0 0 0 0 0 0 0 0 0 0 0 0 0 0 0 0 0 0 0
0 0 0 0 0 0 0 0 0 0 0 0 0 0 0 357 0 0 26 111 62 0 6 0 0 0 0 0 0 0 0 0 0 0 0 0 0 0 0 0 0 0 0 0 0 0 0
0 0 0 0 0 0 0 0 0 0 0 0 0 0 16 0 0 0 0 122 0 0 0 0 0 0 0 0 0 0 0 0 0 0 0 0 0 0 0 0 0 0 0 0 0 0 0
0 0 0 0 0 0 0 0 0 0 0 0 0 76 24 0 0 0 0 0 0 0 0 0 0 0 0 0 0 0 0 0 0 0 0 0 0 0 0 0 0 0 0 0 0 0 0
0 0 0 0 0 0 0 0 0 0 0 0 39 0 0 0 0 14 0 0 0 0 0 0 0 0 0 0 0 0 0 0 0 0 0 0 0 0 0 0 0 0 0 0 0 0 0
0 0 0 0 0 0 0 0 0 0 0 0 8 0 0 0 0 15 8 0 0 0 0 0 0 0 0 0 0 0 0 0 0 0 0 0 0 0 0 0 0 0 0 0 0 0 0
0 0 0 0 0 0 0 0 0 0 0 0 3 0 0 0 0 0 0 0 0 0 0 0 0 0 0 0 0 0 0 0 0 0 0 0 0 0 0 0 0 0 0 0 0 0 0
0 0 0 0 0 0 0 0 0 0 0 0 0 0 0 1 0 0 0 0 0 0 0 0 0 0 0 0 0 0 0 0 0 0 0 0 0 0 0 0 0 0 0 0 0 0 0
0 0 0 0 0 0 0 0 0 0 0 43 34 0 0 0 0 0 3 0 0 0 0 0 0 0 0 0 0 0 0 0 0 0 0 0 0 0 0 0 0 0 0 0 0 0 0
0 0 0 0 0 0 0 0 0 0 0 0 0 8 0 0 2 0 0 0 0 0 0 0 0 0 0 0 0 0 0 0 0 0 0 0 0 0 0 0 0 0 0 0 0 0 0
0 0 0 0 0 0 0 0 0 0 0 0 0 0 0 0 91 0 0 0 0 0 0 0 0 0 0 0 0 0 0 0 0 0 0 0 0 0 0 0 0 0 0 0 0 0 0
0 0 0 0 0 0 0 0 0 0 0 3 1 5 20 10 0 0 0 0 0 0 0 0 0 0 0 0 0 0 0 0 0 0 0 0 0 0 0 0 0 0 0 0 0 0 0
0 0 0 0 0 0 0 0 0 0 0 27 29 0 29 0 1 0 0 0 0 0 0 0 0 0 0 0 0 0 0 0 0 0 0 0 0 0 1 0 0 0 0 0 0 0 0
0 0 0 0 0 0 0 0 0 0 0 0 75 3 9 14 24 0 0 0 0 0 0 0 0 0 0 0 0 0 0 0 0 0 0 0 0 0 0 0 0 0 0 0 0 0 0

GFSGBSN_con_sbcape_003.txt.gz
CAPE
26 24 7 0 4 11 10 4 2 2 0 2 1 1 3 1 1 4 1 1 2 1 2 0 0 0 0 6 0 0 329 307 0 0 0 0 0 0 0 0 0 0 0 0 0 0 0
23 17 1 0 5 6 6 7 2 1 2 2 1 0 1 1 0 3 2 1 1 0 0 0 0 0 0 0 0 0 0 0 0 0 0 0 0 0 0 0 0 0 0 0 0 0 0
3 6 0 0 4 1 4 3 2 0 0 1 1 0 1 0 1 3 2 1 0 0 0 0 0 0 0 0 0 0 0 0 0 0 0 0 0 0 0 0 0 0 0 0 0 0 0
0 0 0 0 0 0 0 1 2 2 0 3 0 1 0 0 0 0 0 0 0 0 0 1 0 0 0 0 0 0 0 0 0 0 0 0 0 0 0 0 0 0 0 0 0 0 0
0 0 0 0 0 0 0 1 1 1 0 0 0 0 2 0 0 0 0 0 0 0 0 1 0 0 0 0 0 0 0 0 0 0 0 0 0 0 0 0 0 0 0 0 0 0 0
0 0 0 0 0 0 0 2 0 1 0 0 0 2 0 0 0 0 0 0 0 0 0 0 0 0 0 0 0 0 0 0 0 0 0 0 0 0 0 0 0 0 0 0 0 0 0
0 0 0 0 0 0 3 0 0 1 0 2 1 0 0 0 0 0 0 0 0 0 0 0 0 0 0 6 0 0 0 0 0 0 0 0 0 0 0 0 0 0 0 0 0 0 0
0 0 0 0 0 0 3 2 1 0 0 1 0 0 0 0 0 0 0 2 28 41 27 0 0 0 0 0 0 0 0 0 0 0 0 0 0 0 0 0 0 0 0 0 0 0 0
0 0 0 0 0 0 3 0 0 0 0 0 0 0 0 0 0 0 0 0 0 0 1 0 0 0 0 0 0 0 0 0 0 0 0 0 0 0 0 0 0 0 0 0 0 0 0
0 0 0 0 0 0 0 0 0 0 0 0 0 0 0 0 0 0 0 0 0 0 0 0 0 0 0 0 0 0 0 0 0 0 0 0 0 0 0 0 0 0 0 0 0 0 0
0 0 0 0 0 0 0 0 0 0 0 0 0 0 0 0 0 166 133 157 0 0 0 0 0 0 0 0 0 0 0 0 0 0 0 0 0 0 0 0 0 0 0 0 0 0 0
0 0 0 0 0 0 0 0 0 0 0 0 0 0 0 0 0 0 76 0 0 0 0 0 0 0 0 0 0 0 0 0 0 0 0 0 0 0 0 0 0 0 0 0 0 0 0
0 0 0 0 0 0 0 0 0 0 0 0 0 0 0 0 709 203 11 0 0 77 0 0 0 0 0 0 0 0 0 0 0 0 0 0 0 0 0 0 0 0 0 1 12 5 3
0 0 0 0 0 0 0 0 0 0 0 0 0 0 0 0 85 30 0 0 1 0 0 0 0 0 0 0 0 0 0 0 0 0 0 0 0 0 0 0 0 0 0 2 12 0 0
0 0 0 0 0 0 0 0 0 0 0 0 0 0 32 311 276 0 0 0 64 0 0 0 0 0 0 0 0 0 0 0 0 0 0 0 0 0 0 0 0 0 0 0 0 0 0
0 0 0 0 0 0 0 0 0 0 0 0 0 0 0 32 0 0 3 159 119 1 0 0 0 0 0 0 0 0 0 0 0 0 0 0 0 0 0 0 0 0 0 0 0 0 0
0 0 0 0 0 0 0 0 0 0 0 0 0 0 0 0 0 0 0 12 113 0 3 0 0 0 0 0 0 0 0 0 0 0 0 0 0 0 0 0 0 0 0 0 0 0 0
0 0 0 0 0 1 1 0 0 0 0 0 0 0 0 0 0 0 0 0 46 0 0 9 0 0 0 0 0 0 0 0 0 0 0 0 0 0 0 0 0 0 0 0 0 0 0
0 0 0 0 0 0 0 0 0 0 0 0 0 199 10 0 0 0 0 13 0 0 0 0 0 0 0 0 0 0 0 0 0 0 0 0 0 0 0 0 0 0 0 0 0 0 0
0 0 0 0 0 0 0 0 0 0 0 0 0 0 0 0 0 0 0 0 0 0 0 0 0 0 0 0 0 0 0 0 0 0 0 0 0 0 0 0 0 0 0 0 0 0 0
0 0 0 0 0 0 0 0 0 0 0 0 0 0 0 0 0 21 0 0 0 0 0 0 0 0 0 0 0 0 0 0 0 0 0 0 0 0 0 0 0 0 0 0 0 0 0
0 0 0 0 0 1 0 0 0 0 0 0 0 0 0 0 0 0 0 0 0 0 0 0 0 0 0 0 0 0 0 0 0 0 0 0 0 0 0 0 0 0 0 0 0 0 0
0 0 0 0 0 0 0 0 0 0 0 0 0 0 0 0 0 0 0 0 0 0 0 0 0 0 0 0 0 0 0 0 0 0 0 0 0 0 0 0 0 0 0 0 0 0 0
0 0 0 0 0 0 0 0 0 0 0 3 1 0 0 0 0 0 0 0 0 0 0 0 0 0 0 0 0 0 0 0 0 0 0 0 0 0 0 0 0 0 0 0 0 0 0
0 0 0 0 0 0 0 0 0 0 0 18 0 0 0 0 0 0 0 0 0 0 0 0 0 0 0 0 0 0 0 0 0 0 0 0 0 0 0 0 0 0 0 0 0 0 0
0 0 0 0 0 0 0 0 0 0 0 0 0 0 0 5 0 0 0 0 0 0 0 0 0 0 0 0 0 0 0 0 0 0 0 0 0 0 0 0 0 0 0 0 0 0 0
0 0 0 0 0 0 0 0 0 0 0 0 0 0 0 0 0 0 0 0 0 0 0 0 0 0 0 0 0 0 0 0 0 0 0 0 0 0 0 0 0 0 0 0 0 0 0
0 0 0 0 0 0 0 0 0 0 0 0 12 0 0 0 0 0 0 0 0 0 0 0 0 0 0 0 0 0 0 0 0 0 0 0 0 0 0 0 0 0 0 0 0 0 0
0 0 0 0 0 0 0 0 0 0 0 0 37 0 0 0 0 0 0 0 0 0 0 0 0 0 0 0 0 0 0 0 0 0 0 0 0 0 0 0 0 0 0 0 0 0 0

GFSGBSN_con_sbcape_006.txt.gz
CAPE
16 15 15 20 13 0 0 8 1 1 1 4 2 1 2 2 4 5 4 3 1 1 0 0 1 1 0 0 0 18 412 298 0 0 0 0 0 0 0 0 0 0 0 0 0 0 0
0 0 10 18 10 0 0 7 6 0 1 2 1 1 2 1 2 7 1 2 0 0 0 1 1 1 0 0 0 0 7 0 0 0 0 0 0 0 0 0 0 0 0 0 0 0 0
0 0 0 9 1 0 1 2 3 2 1 0 2 0 1 6 3 1 3 1 0 0 0 0 0 0 0 0 0 0 0 0 0 0 0 0 0 0 0 0 0 0 0 0 0 0 0
0 0 0 0 0 0 0 0 0 1 0 0 3 1 2 1 1 1 0 0 0 1 0 1 2 0 0 0 0 0 0 0 0 0 0 0 0 0 0 0 0 0 0 0 0 0 0
0 0 0 0 0 0 0 0 0 0 0 0 0 0 1 0 0 0 0 0 0 1 2 1 0 0 0 0 0 0 0 0 0 0 0 0 0 0 0 0 0 0 0 0 0 0 0
0 0 0 0 0 0 0 0 2 0 0 0 1 1 0 1 1 0 0 0 0 2 1 0 0 0 0 0 0 0 0 0 0 0 0 0 0 0 0 0 0 0 0 0 0 0 0
0 0 0 0 0 0 0 0 1 0 0 0 0 2 1 0 0 0 1 0 0 0 0 0 0 0 0 0 0 0 0 0 0 0 0 0 0 0 0 0 0 0 0 0 0 0 0
0 0 0 0 0 0 0 0 0 0 3 2 1 0 0 0 1 0 0 0 0 0 4 0 0 0 0 0 0 0 0 0 0 0 0 0 0 0 0 0 0 0 0 0 0 0 0
0 0 0 0 0 0 0 0 0 0 0 0 0 0 0 0 1 4 0 0 0 0 5 0 0 0 0 0 0 0 0 0 0 0 0 0 0 0 0 0 0 0 0 0 0 0 0
0 0 0 0 0 0 0 0 0 0 0 0 0 0 0 0 0 0 0 0 0 0 0 0 0 0 0 0 0 0 0 0 0 0 0 0 0 0 0 0 0 0 0 0 0 0 0
0 0 0 0 0 0 0 0 0 0 0 0 0 0 0 0 0 20 58 130 0 0 0 0 0 0 0 0 0 0 0 0 0 0 0 0 0 0 0 0 0 0 0 0 0 0 0
0 0 0 0 0 0 0 0 0 0 0 0 0 0 0 1 0 0 1 0 0 0 0 0 0 0 0 0 0 0 0 0 0 0 0 0 0 0 0 0 0 0 0 0 0 0 0
0 0 0 0 0 0 0 0 0 0 0 0 0 0 0 0 363 68 0 0 0 0 0 0 0 0 0 0 0 0 0 0 0 0 0 0 0 0 0 0 0 0 0 0 0 0 0
0 0 0 0 0 0 0 0 0 0 0 0 0 0 0 0 0 0 0 0 0 0 0 0 0 0 0 0 0 0 0 0 0 0 0 0 0 0 0 0 0 0 0 0 0 0 0
0 0 0 0 0 0 0 0 0 0 0 0 0 0 0 5 0 0 0 0 0 0 0 0 0 0 0 0 0 0 0 0 0 0 0 0 0 0 0 0 0 0 0 0 0 0 0
0 0 0 0 0 0 0 0 0 0 0 0 0 0 0 0 0 0 0 0 82 2 0 0 0 0 0 0 0 0 0 0 0 0 0 0 0 0 0 0 0 0 0 0 0 0 0
0 0 0 0 0 0 0 0 1 0 0 0 0 0 0 0 0 0 0 0 32 16 0 0 0 0 0 0 0 0 0 0 0 0 0 0 0 0 0 0 0 0 0 0 0 0 0
0 0 0 0 0 0 0 1 1 0 0 0 0 0 0 0 0 0 0 0 3 0 0 8 0 0 0 0 0 0 0 0 0 0 0 0 0 0 0 0 0 0 0 0 0 0 0
0 0 0 0 0 0 2 0 1 0 0 0 0 144 0 0 0 0 0 0 0 0 0 0 0 0 0 0 0 0 0 0 0 0 0 0 0 0 0 0 0 0 0 0 0 0 0
0 0 0 0 0 0 1 1 0 0 0 0 0 44 0 0 0 0 0 0 0 0 0 0 0 0 0 0 0 0 0 0 0 0 0 0 0 0 0 0 0 0 0 0 0 0 0
0 0 0 1 0 0 0 1 0 0 0 0 0 0 0 0 0 0 0 0 0 0 0 0 0 0 0 0 0 0 0 0 0 0 0 0 0 0 0 0 0 0 0 0 0 0 0
0 0 0 0 2 0 0 0 0 0 0 0 0 0 0 0 0 0 0 0 0 0 0 0 0 0 0 0 0 0 0 0 0 0 0 0 0 0 0 0 0 0 0 0 0 0 0
0 0 0 0 0 1 0 0 0 0 0 0 0 0 0 0 0 0 0 0 0 0 0 0 0 0 0 0 0 0 0 0 0 0 0 0 0 0 0 0 0 0 0 0 0 0 0
1 0 0 0 1 0 0 0 0 0 0 0 0 0 0 0 0 0 0 0 0 0 0 0 0 0 0 0 0 0 0 0 0 0 0 0 0 0 0 0 0 0 0 0 0 0 0
1 2 2 0 0 0 0 0 0 0 0 0 0 0 0 0 0 0 0 0 0 0 0 0 0 0 0 0 0 0 0 0 0 0 0 0 0 0 0 0 0 0 0 0 0 0 0
0 0 0 0 0 0 0 0 0 0 0 0 0 0 0 0 0 0 0 0 0 0 0 0 0 0 0 0 0 0 0 0 0 0 0 0 0 0 0 0 0 0 0 0 0 0 0
0 0 0 0 0 0 0 0 0 0 0 2 2 0 0 0 0 0 0 0 0 0 0 0 0 0 0 0 0 0 0 0 0 0 0 0 0 0 0 0 0 0 0 0 0 0 0
0 0 0 0 0 0 0 0 0 0 0 0 3 0 0 0 0 0 0 0 0 0 0 0 0 0 0 0 0 0 0 0 0 0 0 0 0 0 0 0 0 0 0 0 0 0 0
0 0 0 0 0 0 0 0 1 0 0 14 7 0 0 0 0 0 0 0 0 0 0 0 0 0 0 0 0 0 0 0 0 0 0 0 0 0 0 0 0 0 0 0 0 0 0

GFSGBSN_con_sbcape_009.txt.gz
CAPE
2 2 0 0 2 19 11 0 0 2 1 4 4 1 4 3 3 5 1 1 1 1 2 2 1 0 1 0 0 25 365 225 4 0 0 0 0 0 0 0 0 0 0 0 0 0 0
0 0 0 0 0 8 15 0 0 1 1 4 2 0 3 2 3 5 0 1 1 1 1 1 0 2 0 0 0 42 70 0 0 0 0 0 0 0 0 0 0 0 0 0 0 0 0
0 0 0 0 0 0 5 0 0 1 3 3 2 1 3 1 4 1 1 0 0 1 1 1 0 0 0 0 0 0 0 0 0 0 0 0 0 0 0 0 0 0 0 0 0 0 0
0 0 0 0 0 0 0 0 0 0 2 4 2 1 0 2 2 0 0 0 0 1 1 2 2 0 0 0 0 0 0 0 0 0 0 0 0 0 0 0 0 0 0 0 0 0 0
11 0 0 0 0 0 0 0 0 0 1 2 1 0 0 1 1 0 0 0 0 0 1 1 0 0 1 0 0 0 0 0 0 0 0 0 0 0 0 0 0 0 0 0 0 0 0
23 0 0 0 0 0 0 0 0 0 0 0 1 0 0 0 1 1 0 0 0 0 0 1 0 0 0 0 0 0 0 0 0 0 0 0 0 0 0 0 0 0 0 0 0 0 0
38 5 0 0 0 0 0 0 0 0 1 1 1 0 0 2 2 0 0 0 0 0 0 0 0 0 0 0 0 0 0 0 0 0 0 0 0 0 0 0 0 0 0 0 0 0 0
0 19 0 0 0 0 0 0 0 0 1 0 1 2 2 0 1 0 0 0 0 0 16 0 0 0 0 0 0 0 0 0 0 0 0 0 0 0 0 0 0 0 0 0 0 0 0
0 10 0 0 0 0 0 0 0 0 1 0 0 0 1 1 0 2 1 0 0 0 4 0 0 0 0 0 0 0 0 0 0 0 0 0 0 0 0 0 0 0 0 0 0 0 0
0 0 1 0 0 0 0 0 0 0 0 0 0 0 0 0 0 0 0 0 0 0 0 0 0 0 0 0 0 0 0 0 0 0 0 4 0 0 0 0 0 0 0 0 0 0 6
2 0 4 0 0 0 0 0 0 0 0 0 0 0 0 0 0 0 0 1 0 0 0 0 0 0 0 0 0 0 0 0 0 0 0 1 0 0 0 0 0 0 0 0 0 0 0
32 0 6 0 0 0 0 0 0 0 0 0 0 0 0 1 1 0 0 0 0 0 6 0 0 0 0 0 0 0 0 0 0 0 0 0 0 0 0 0 0 0 0 0 0 0 0
54 0 0 0 0 0 0 0 0 0 0 0 0 0 0 0 0 0 0 0 0 0 0 0 0 0 0 0 0 0 0 0 0 0 0 0 0 0 0 0 0 0 0 3 2 0 0
76 2 0 1 0 0 0 0 0 0 0 0 0 0 0 0 0 0 0 0 0 0 0 0 0 0 0 0 0 0 0 0 0 0 0 0 0 0 0 0 0 0 0 17 0 0 0
96 15 0 3 0 0 0 0 0 0 0 0 0 2 0 0 0 0 0 0 0 0 0 0 0 0 0 0 0 0 0 0 0 0 0 0 0 0 0 0 0 0 0 0 0 0 0
137 48 0 9 0 0 0 0 0 0 0 0 0 0 0 0 0 0 0 0 14 0 0 0 0 0 0 0 0 0 0 0 0 0 0 0 0 0 0 0 0 0 0 0 0 0 0
142 41 3 8 0 0 0 0 0 0 0 0 0 0 0 0 0 0 0 0 2 0 0 0 0 0 0 0 0 0 0 0 0 0 0 0 0 0 0 0 0 0 0 0 0 0 0
117 19 4 0 0 0 0 0 0 0 1 0 0 0 0 0 0 0 0 0 0 0 0 0 0 0 0 0 0 0 0 0 0 0 0 0 0 0 0 0 0 0 0 0 0 0 0
125 48 5 0 0 0 0 0 0 2 0 0 0 30 1 0 0 0 0 0 0 0 0 0 0 0 0 0 0 0 0 0 0 0 0 0 0 0 0 0 0 0 0 0 0 0 0
44 23 12 0 0 0 0 0 0 1 0 0 5 54 7 0 0 0 0 0 0 0 0 0 0 0 0 0 0 0 0 0 0 0 0 0 0 0 0 0 0 0 0 0 0 0 0
29 23 23 0 0 0 0 1 0 1 0 0 0 0 4 0 0 0 0 0 0 0 0 0 0 0 0 0 0 0 0 0 0 0 0 0 0 0 0 0 0 0 0 0 0 0 0
79 48 0 0 0 0 0 1 1 0 0 0 0 0 0 0 0 0 0 0 0 0 0 0 0 0 0 0 0 0 0 0 0 0 0 0 0 0 0 0 0 0 0 0 0 0 0
3 44 0 0 0 0 0 1 1 0 0 0 0 0 0 0 0 0 0 0 0 0 0 0 0 0 0 0 0 0 0 0 0 0 0 0 0 0 0 0 0 0 0 0 0 0 0
37 0 1 2 0 0 0 1 0 0 0 0 0 0 0 0 0 0 0 0 0 0 0 0 0 0 0 0 0 0 0 0 0 0 0 0 0 0 0 0 0 0 0 0 0 0 0
1 0 0 1 0 1 0 0 0 0 0 0 0 0 0 0 0 0 0 0 0 0 0 0 0 0 0 0 0 0 0 0 0 0 0 0 0 0 0 0 0 0 0 0 0 0 0
1 0 2 1 0 0 0 0 0 0 0 0 0 0 0 0 0 0 0 0 0 0 0 0 0 0 0 0 0 0 0 0 0 0 0 0 0 0 0 0 0 0 0 0 0 0 0
1 0 0 0 0 0 0 0 0 0 0 0 0 0 0 0 0 0 0 0 0 0 0 0 0 0 0 0 0 0 0 0 0 0 0 0 0 0 0 0 0 0 0 0 0 0 0
0 0 0 0 0 0 0 0 0 0 0 0 13 0 0 0 0 0 0 0 0 0 0 0 0 0 0 0 0 0 0 0 0 0 0 0 0 0 0 0 0 0 0 0 0 0 0
0 0 0 0 0 0 0 0 0 0 0 0 60 0 0 0 0 0 0 0 0 0 0 0 0 0 0 0 0 0 0 0 0 0 0 0 0 0 0 0 0 0 0 0 0 0 0

GFSGBSN_con_sbcape_012.txt.gz
CAPE
4 2 0 0 0 0 0 3 9 0 0 0 7 5 9 4 5 7 4 4 3 3 3 4 1 2 0 0 1 222 258 165 0 0 0 0 0 0 0 0 0 0 0 0 0 0 74
9 2 0 0 0 0 0 0 3 0 0 0 2 5 6 3 4 7 6 5 1 0 1 2 2 0 0 0 0 185 114 0 0 0 0 0 0 0 0 0 0 0 0 0 0 0 0
0 9 0 0 0 0 0 0 0 0 0 0 0 5 3 4 5 6 5 1 0 0 1 2 1 0 0 1 0 175 22 0 0 0 0 0 0 0 0 0 0 0 0 0 0 0 0
9 3 6 0 0 0 0 0 0 0 0 0 4 4 1 1 2 3 0 0 0 0 3 3 1 0 19 0 0 0 0 0 0 0 0 0 0 0 0 0 0 0 0 0 0 0 0
20 4 17 1 0 0 0 0 0 0 0 0 1 3 2 0 0 1 0 0 0 2 0 0 0 0 24 0 0 0 0 0 0 0 0 0 0 0 0 0 0 0 0 0 0 0 0
26 13 14 2 0 0 0 0 0 0 0 0 1 2 2 1 0 0 0 0 0 1 2 0 0 65 55 0 1 0 0 0 0 0 0 0 0 0 0 0 0 0 0 0 0 0 0
42 34 8 5 0 0 0 0 0 0 0 0 2 1 2 0 1 0 0 0 0 0 0 0 0 1 0 0 0 0 0 0 0 0 23 0 0 0 0 0 0 0 0 0 0 4 64
33 35 16 33 0 0 0 0 0 0 0 0 0 2 1 1 1 0 0 0 0 37 74 5 0 0 0 0 0 0 1 22 51 9 0 1 1 0 1 0 0 0 0 21 0 0 107
46 44 11 7 1 0 0 0 0 0 0 0 0 2 0 1 0 1 0 0 0 7 378 1 0 0 0 0 0 0 4 5 20 17 4 45 12 0 18 15 17 20 52 87 56 18 73
54 50 19 3 16 0 0 0 0 0 0 0 0 0 0 0 0 0 0 0 0 0 22 0 0 0 0 0 0 0 5 26 14 67 82 138 14 60 96 71 48 134 7 23 61 62 89
61 61 41 0 9 0 0 0 0 0 0 0 0 0 0 0 0 0 14 133 35 14 0 0 0 0 0 0 0 15 3 50 27 73 142 150 88 99 122 94 49 117 11 114 67 139 121
59 74 67 1 0 0 0 0 0 0 0 0 0 0 0 1 0 0 0 146 122 259 0 0 0 0 9 0 0 18 40 24 33 107 143 102 18 81 79 11 12 3 52 51 56 107 144
63 66 62 28 0 1 0 0 0 0 0 0 0 0 2 0 0 0 371 254 53 17 1 0 0 0 18 8 18 91 131 132 149 191 213 125 88 18 27 69 8 65 127 157 100 150 164
79 93 74 64 7 1 0 0 0 0 0 0 0 0 3 0 0 0 0 0 3 0 4 0 0 0 38 8 16 40 119 159 46 139 203 106 128 0 0 44 59 126 130 83 20 122 54
112 129 95 83 2 14 0 0 0 0 0 0 0 10 4 0 0 0 0 119 1 5 8 0 0 0 23 12 0 69 114 150 30 61 68 56 1 0 0 0 0 0 30 23 53 1 47
140 97 76 68 4 21 1 0 0 0 0 0 5 4 0 2 0 0 78 0 0 71 3 0 0 0 15 27 0 4 98 6 11 0 2 46 7 0 0 0 0 0 0 8 13 2 0
180 134 88 83 8 34 2 0 0 0 0 0 1 0 52 202 5 10 133 0 5 279 106 0 0 0 0 26 12 0 0 2 0 0 0 0 15 2 0 0 10 0 0 0 0 0 0
181 146 97 82 41 5 7 0 0 0 0 0 0 7 37 0 11 0 0 0 72 180 3 0 3 0 9 44 31 51 2 18 0 0 0 0 12 58 0 0 0 0 0 0 0 0 0
179 178 139 116 67 18 3 0 0 0 0 4 0 198 13 0 21 41 0 0 84 23 0 91 45 65 76 132 115 74 24 0 0 0 0 0 1 0 0 0 0 0 0 0 0 0 0
137 185 199 149 64 16 0 0 0 0 0 24 44 229 209 0 0 0 0 0 0 0 5 25 85 127 156 92 34 82 21 0 0 0 0 0 0 0 52 0 0 0 0 0 0 0 0
164 196 136 91 32 26 0 0 0 0 0 0 107 79 43 45 0 0 0 0 0 38 7 20 94 162 218 178 70 80 7 0 0 0 0 0 0 0 0 0 0 0 0 0 0 0 0
226 162 60 60 6 5 0 1 0 0 0 13 107 80 15 0 0 0 0 0 0 10 63 98 199 110 143 223 114 145 12 0 0 0 0 0 0 0 0 0 0 0 0 0 0 0 0
177 84 9 52 33 5 1 1 0 0 0 36 76 2 56 0 0 0 0 0 0 130 9 8 190 177 136 43 0 0 0 0 0 0 0 0 0 0 0 0 0 0 0 0 0 0 0
94 68 68 37 35 12 2 1 0 0 0 169 231 75 99 1 0 0 0 0 70 141 174 0 43 188 0 0 0 0 0 0 0 0 0 0 0 0 0 0 0 0 0 0 0 0 0
78 47 89 14 1 2 0 0 0 0 0 294 214 147 73 0 3 0 0 0 0 4 61 39 0 0 0 0 16 0 0 0 0 0 0 0 0 0 10 0 0 0 0 0 0 0 0
42 45 44 1 0 0 0 0 0 0 0 284 338 59 274 61 0 0 0 0 97 177 61 0 0 0 0 0 7 46 4 0 0 0 0 0 0 0 0 113 180 0 0 0 0 0 0
28 1 2 0 0 0 0 0 0 0 0 228 347 39 333 195 5 0 0 0 37 176 248 0 0 0 0 0 564 198 23 0 0 0 0 0 0 0 0 0 0 0 0 0 0 0 0
1 1 1 1 0 0 0 0 0 0 0 228 386 145 682 520 5 2 0 0 0 183 337 0 2 4 0 122 551 24 134 0 0 0 0 0 0 0 0 5 0 0 0 1 0 0 0
0 0 0 0 0 0 0 0 0 0 0 105 656 52 157 402 54 0 0 0 0 71 125 0 219 10 47 63 3 0 2 0 0 4 0 0 0 0 0 0 0 0 0 0 0 0 0

GFSGBSN_con_sbcape_015.txt.gz
CAPE
8 1 9 0 0 0 0 0 0 0 0 0 0 1 9 7 9 9 5 2 6 9 5 3 1 2 0 80 117 306 177 169 0 0 0 0 0 0 0 0 0 0 5 0 4 56 25
6 7 1 1 0 0 0 0 0 0 0 0 0 0 5 8 10 9 8 5 6 4 1 3 3 0 0 115 8 266 5 0 1 5 0 0 0 0 0 0 7 0 0 0 0 0 26
19 9 1 6 3 0 0 0 0 0 0 0 0 0 5 4 7 6 8 6 4 1 0 3 1 0 0 95 16 210 1 0 0 0 0 0 0 0 0 0 0 0 0 0 2 0 34
23 18 13 1 1 0 0 0 0 0 0 0 0 0 2 1 3 3 5 4 1 0 0 2 0 0 25 40 30 53 158 24 3 0 0 2 0 0 0 0 0 0 0 16 9 30 31
27 23 8 7 2 0 0 0 0 0 0 0 0 0 0 0 0 1 2 0 0 0 0 0 0 0 180 0 2 1 17 7 17 3 0 0 0 0 0 2 2 1 0 2 5 4 37
32 33 27 12 0 4 0 0 0 0 0 0 0 0 0 0 0 0 0 0 0 0 0 0 0 68 187 0 8 0 0 1 35 11 1 0 3 14 4 12 1 2 6 15 23 0 0
20 39 35 31 11 4 0 0 0 0 0 0 0 0 0 1 0 0 0 0 0 0 0 1 4 0 0 0 0 0 0 0 22 91 111 1 15 5 0 0 0 4 2 6 6 0 0
32 34 36 29 35 21 6 0 0 0 0 0 0 0 0 0 1 0 1 0 0 48 146 0 0 0 0 0 5 0 0 2 38 64 56 14 0 7 0 0 0 0 2 18 3 0 49
40 44 42 26 36 18 19 0 0 0 0 0 0 0 1 0 0 2 0 0 0 0 297 21 0 0 0 7 2 20 5 18 25 34 0 37 20 3 0 0 0 14 4 28 46 68 90
54 40 38 40 29 14 11 0 0 0 0 0 0 1 0 0 0 0 0 0 0 0 206 0 0 0 0 3 13 0 8 33 6 20 13 11 55 4 2 4 5 45 67 36 69 155 125
51 51 48 46 36 20 1 2 0 0 0 0 0 0 0 0 2 0 72 27 22 257 94 7 12 0 0 0 7 11 12 7 0 40 2 87 114 138 57 54 132 225 108 147 145 121 42
63 76 58 53 39 34 0 2 0 0 0 0 0 0 0 3 0 0 0 636 479 393 44 0 0 0 4 7 0 33 15 16 50 36 64 27 151 166 186 134 118 129 184 197 193 181 217
81 79 72 60 43 43 1 1 0 0 0 0 0 0 4 0 0 0 397 685 283 20 2 0 0 0 6 0 2 7 3 16 7 5 142 155 124 124 121 161 172 157 219 215 175 267 209
41 68 83 69 45 38 11 14 0 0 0 0 0 0 3 0 0 58 925 459 65 0 21 0 0 0 22 9 1 10 15 22 33 157 42 143 230 122 119 190 186 171 176 195 47 152 128
54 32 84 69 64 35 26 23 0 0 0 0 0 15 10 2 0 4 534 212 37 1 12 0 0 0 22 1 1 54 102 111 91 76 83 131 52 48 52 81 54 138 132 139 219 180 177
33 29 91 83 73 57 29 40 0 0 0 0 8 8 0 0 0 77 231 2 12 24 1 0 0 0 50 39 0 21 142 170 201 163 240 137 145 13 4 19 26 61 67 65 19 7 34
79 47 117 103 79 69 37 41 7 0 0 0 26 3 66 14 11 56 52 0 18 36 3 0 0 0 41 53 19 18 118 187 201 170 144 41 24 96 0 13 43 50 0 0 44 103 32
92 33 80 118 89 80 52 50 34 0 0 0 32 15 194 473 33 92 105 0 0 116 161 19 5 0 0 44 54 25 3 21 121 127 5 0 53 247 113 5 1 49 88 38 0 0 0
72 23 62 124 69 77 61 56 60 0 0 11 84 164 654 521 144 591 40 3 2 90 65 63 0 0 0 0 0 0 2 48 43 124 5 102 6 135 79 50 2 0 0 0 0 0 0
4 27 96 115 28 14 58 63 58 0 0 68 132 190 352 121 245 96 36 21 3 50 41 60 0 87 118 162 156 206 213 5 0 24 0 0 0 18 133 110 47 23 0 0 0 0 0
2 48 132 115 91 25 78 63 35 0 0 34 179 80 29 133 333 107 42 4 0 8 64 167 204 74 64 122 248 281 356 11 0 2 0 18 29 3 14 1 0 0 0 0 0 0 14
32 83 99 123 125 77 82 35 30 0 0 38 164 200 173 437 130 91 43 5 1 44 129 226 174 53 92 201 250 158 372 202 185 45 86 0 53 0 0 0 0 0 0 0 0 0 0
140 111 157 154 95 62 52 5 14 0 0 44 347 307 515 145 443 85 109 17 5 154 303 220 139 251 242 410 453 356 267 184 174 270 192 49 25 0 0 0 0 0 0 0 0 0 0
169 164 194 135 84 53 37 1 4 0 0 100 344 224 127 342 433 34 15 7 5 191 297 188 317 329 225 52 48 39 0 0 0 0 40 0 0 0 0 0 0 0 0 0 0 0 0
109 188 221 159 50 27 5 17 1 0 0 138 799 445 300 803 82 32 1 0 3 307 410 331 169 230 84 164 159 51 56 9 0 0 0 0 0 0 0 0 0 0 0 0 0 0 0
168 196 182 91 82 6 1 24 0 0 0 9 1048 815 462 356 114 0 1 0 399 547 411 14 2 21 1 392 390 129 82 11 13 0 0 0 0 0 0 0 0 0 0 0 0 0 0
140 96 67 79 41 7 41 3 0 0 0 5 933 877 156 38 41 0 3 0 2 323 586 81 8 13 0 582 1481 356 122 1 0 0 0 0 0 0 0 4 0 0 0 0 0 0 0
55 58 37 14 9 1 1 0 0 0 0 10 1050 976 329 69 148 82 22 0 0 93 759 249 127 87 131 352 898 448 775 64 3 0 0 0 0 1 0 1 0 0 0 0 0 0 0
21 17 10 23 0 0 0 0 0 0 0 0 1153 631 1165 514 583 283 228 137 118 309 625 250 358 400 434 566 783 723 670 2 91 47 0 0 0 0 0 0 0 0 0 0 0 0 0

GFSGBSN_con_sbcape_018.txt.gz
CAPE
8 3 1 0 5 0 0 0 0 0 0 0 0 0 0 0 5 6 2 3 8 7 8 2 1 0 0 29 153 177 501 117 0 0 2 0 0 0 0 0 0 0 0 0 104 4 54
6 11 8 2 0 6 2 0 0 0 0 0 0 0 0 0 7 1 5 3 7 6 7 0 0 0 0 56 33 165 37 0 0 0 2 0 0 0 1 0 0 0 0 0 12 45 92
13 12 10 6 5 0 2 0 0 0 0 0 0 0 0 0 5 6 7 1 5 8 0 0 0 0 0 2 8 122 0 0 0 0 0 0 0 0 0 12 0 0 0 0 3 0 109
18 17 19 11 11 2 1 0 0 0 0 0 0 0 0 0 0 3 4 4 5 2 0 0 0 0 0 27 10 22 58 7 0 0 0 1 0 0 0 0 0 0 0 0 0 3 33
22 15 15 17 7 4 0 2 0 0 0 0 0 0 0 0 0 1 3 0 0 0 0 0 0 0 49 0 1 0 12 85 21 8 0 0 0 0 0 0 0 0 0 0 0 0 27
31 26 18 14 8 9 3 2 0 0 0 0 0 0 0 0 0 0 0 0 0 0 0 0 0 0 90 9 0 0 0 1 17 21 0 0 1 10 0 0 0 0 0 0 1 0 6
17 28 25 20 15 8 11 7 5 0 0 0 0 0 0 0 0 0 0 0 0 0 0 0 0 0 0 0 0 0 1 7 58 37 86 29 28 25 12 6 0 0 0 4 3 0 0
38 42 33 31 19 7 5 12 6 0 0 0 0 0 0 0 1 0 0 0 1 0 14 0 0 0 0 0 0 0 0 10 127 112 78 0 2 0 0 0 2 0 4 2 0 0 0
36 39 41 35 36 24 0 8 11 0 0 0 0 0 0 0 0 1 0 0 0 0 3 0 0 0 0 0 0 0 0 0 19 30 2 8 9 1 0 0 1 0 23 14 7 0 0
41 45 47 46 41 38 12 2 2 0 0 0 0 0 0 0 0 0 0 0 0 0 0 0 0 0 0 0 0 0 0 0 17 29 0 15 6 3 2 0 0 7 22 9 4 34 27
66 49 54 43 41 27 14 4 0 7 0 0 0 0 0 0 0 0 33 0 3 56 45 0 0 0 0 0 0 0 0 0 27 1 14 60 12 3 0 49 41 15 6 27 46 29 78
86 72 59 53 48 35 20 9 0 13 0 0 0 0 0 4 1 0 0 429 231 387 2 0 0 0 0 0 0 4 0 0 1 0 15 0 2 40 50 51 51 78 85 115 4 52 133
71 63 75 59 49 52 38 18 0 8 0 0 0 0 3 0 0 0 0 551 123 5 0 1 0 0 1 1 0 0 0 0 2 1 76 0 0 16 63 4 31 2 1 68 62 75 258
108 102 105 92 68 64 47 29 0 12 0 0 0 0 2 0 0 1 373 548 14 0 0 0 0 3 14 28 0 0 0 0 0 1 32 103 179 14 1 0 24 129 0 178 0 0 166
60 76 119 112 100 78 52 38 14 11 0 0 0 20 18 2 0 14 265 108 7 0 0 15 0 14 10 16 3 0 0 0 0 0 63 32 19 0 20 15 0 0 92 63 21 44 250
73 113 105 61 51 91 65 44 17 16 1 0 8 23 2 1 0 2 180 13 0 2 8 20 4 2 26 41 0 0 0 2 1 47 32 5 0 32 16 1 9 5 0 148 64 9 3
123 110 95 78 40 47 71 53 42 27 4 0 27 16 0 2 12 63 65 11 15 7 10 30 0 12 29 69 2 3 51 63 55 112 71 66 162 86 28 9 0 29 1 0 0 410 464
115 121 101 94 32 46 79 69 50 42 2 0 63 9 79 144 0 0 59 0 4 20 4 26 27 34 13 109 45 6 15 106 147 45 57 25 3 460 69 15 1 1 115 0 607 31 415
142 143 119 83 54 48 94 77 58 48 1 12 45 118 382 254 0 15 15 0 14 20 99 96 11 30 12 36 100 18 31 307 290 111 48 55 56 187 62 160 72 0 0 6 33 222 192
142 152 134 107 88 59 109 73 65 47 6 21 83 128 363 275 0 12 60 0 5 40 53 54 59 25 7 0 9 25 40 135 87 129 0 122 16 5 254 69 111 144 0 0 0 262 57
140 132 128 122 66 94 116 84 60 64 19 9 230 81 77 75 63 80 237 28 12 39 25 113 44 0 85 77 80 122 113 199 46 18 0 11 8 0 0 17 27 28 11 5 0 2 0
109 117 133 99 46 63 104 88 80 46 30 24 138 139 177 66 19 116 236 137 43 30 82 152 185 34 133 180 123 153 164 415 166 61 19 32 224 165 139 24 2 0 0 0 0 0 0
82 124 99 63 59 82 59 2 17 40 39 57 20 167 318 94 97 311 271 287 79 121 195 183 159 217 177 424 442 503 629 550 268 375 311 395 640 132 14 0 0 0 0 0 0 0 0
84 22 29 118 103 115 57 3 12 25 47 66 88 477 157 174 90 172 291 115 49 157 398 298 366 465 417 280 338 263 118 93 175 150 355 288 257 176 147 0 0 0 0 0 0 0 0
69 16 40 51 91 115 99 36 5 9 10 70 401 391 237 97 366 317 400 233 163 130 491 414 473 521 525 388 373 152 441 7 0 0 3 27 121 102 90 0 0 0 0 0 0 0 0
59 70 109 114 106 73 28 43 3 6 0 24 20 115 704 482 595 133 191 269 274 947 592 172 297 534 464 1251 1147 275 350 61 68 10 0 0 0 237 0 19 0 0 0 0 0 0 0
63 62 78 98 71 63 50 37 0 0 0 22 13 31 577 459 485 152 165 108 215 883 731 357 119 107 269 1121 965 1029 648 36 189 54 0 0 26 0 0 34 8 0 0 0 0 1 0
51 65 105 105 109 36 10 4 0 0 0 29 9 9 125 412 386 327 233 92 297 843 869 540 377 306 1217 698 905 1098 876 568 287 10 0 2 89 0 138 0 0 0 0 0 47 0 0
95 126 106 111 53 6 0 0 0 0 1 0 5 2 274 1042 663 868 392 327 359 285 847 673 675 609 946 992 922 1385 202 15 100 271 0 87 130 456 7 21 0 0 0 0 0 0 0

GFSGBSN_con_sbcape_021.txt.gz
CAPE
8 2 5 1 0 0 2 0 0 0 0 0 0 0 0 0 0 3 1 0 0 6 3 5 0 0 0 0 13 88 133 223 0 0 0 0 0 0 0 0 0 0 0 89 19 26 4
8 2 0 7 6 0 1 2 1 0 0 0 0 0 0 0 0 0 3 1 0 4 4 2 0 0 0 0 7 48 0 0 0 0 0 0 0 0 0 0 0 0 0 136 86 2 0
7 10 7 5 0 5 5 0 3 0 0 0 0 0 0 0 0 0 1 3 1 2 0 0 0 0 0 0 0 0 0 0 0 0 0 0 0 0 0 3 15 0 0 0 11 26 38
14 9 10 8 7 1 2 0 0 2 0 0 0 0 0 0 0 0 0 0 0 0 0 0 0 0 0 0 0 0 0 0 0 0 0 0 0 0 0 0 0 0 0 0 0 1 1
19 18 13 5 6 10 0 0 0 0 1 0 0 0 0 0 0 0 0 0 0 0 0 0 0 0 0 0 0 0 0 0 0 0 0 0 0 0 0 0 0 0 0 0 0 1 0
17 25 17 13 4 5 9 3 0 0 0 0 0 0 0 0 0 0 0 0 0 0 0 0 0 0 0 0 0 0 0 0 0 0 0 0 0 0 0 0 0 0 0 0 0 0 0
28 25 22 23 19 7 2 10 8 0 0 0 0 0 0 0 0 0 0 0 0 0 0 0 0 0 0 0 0 0 0 0 0 0 0 0 0 0 0 0 0 0 0 0 0 0 0
49 38 20 26 23 12 0 0 0 3 0 0 0 0 0 0 0 0 0 0 0 0 0 0 0 0 0 0 0 0 0 0 17 9 17 0 1 0 0 0 0 0 0 0 0 0 0
53 47 39 27 40 25 14 2 0 0 0 0 0 0 0 0 0 0 0 0 0 0 0 0 0 0 0 0 0 0 0 0 2 1 5 0 12 0 0 0 0 8 2 0 0 0 0
63 50 49 44 36 39 25 11 10 0 3 0 0 0 0 0 0 0 0 0 0 0 0 0 0 0 0 0 0 0 0 0 0 4 0 0 0 0 6 0 0 0 0 0 1 0 0
56 60 55 60 42 38 30 18 12 9 4 0 0 0 0 0 0 0 0 0 0 0 0 0 0 0 0 0 0 0 0 0 0 3 0 0 3 1 1 7 0 4 0 0 7 0 0
89 71 58 74 64 41 36 30 16 10 7 0 0 0 0 1 1 0 0 0 50 9 0 0 0 0 0 0 0 0 0 0 0 0 0 0 0 5 0 0 0 36 16 14 1 0 2
101 96 90 82 85 62 36 38 20 19 12 1 0 0 0 0 0 0 0 0 17 32 0 0 0 0 0 0 0 0 0 0 0 0 0 1 0 0 21 26 0 8 0 0 0 0 1
89 101 109 92 60 72 62 47 35 17 27 3 0 0 0 0 0 0 0 49 12 0 0 0 0 0 0 0 0 0 0 0 0 0 0 41 1 2 0 11 40 0 0 0 1 0 1
118 109 98 99 64 74 91 61 49 36 37 11 0 1 2 0 0 0 38 19 0 0 0 0 0 0 0 0 0 0 0 0 0 0 0 7 48 11 31 52 15 7 18 6 1 0 1
98 85 84 84 100 111 112 81 72 51 44 6 8 6 2 0 0 0 39 4 0 0 0 2 1 0 0 0 0 0 0 0 0 0 14 12 7 0 0 3 2 23 0 45 3 0 4
130 132 112 76 90 106 88 75 93 69 64 13 16 9 0 0 0 38 7 10 0 4 0 5 4 0 0 0 0 0 0 1 4 42 25 0 1 16 5 6 0 0 0 0 0 0 0
97 119 123 100 121 67 100 55 63 84 68 21 57 23 0 0 5 11 3 0 0 8 18 7 0 0 0 8 0 0 0 272 44 33 31 0 0 10 76 19 5 0 14 20 0 0 0
89 103 129 120 124 99 99 47 79 75 63 18 41 75 22 0 0 0 0 0 0 0 1 0 17 2 2 4 13 0 137 146 160 61 25 42 0 0 0 4 68 3 0 0 1 0 0
100 104 117 117 142 66 125 45 91 75 77 33 52 69 132 32 0 0 0 0 0 1 9 12 11 57 17 25 0 15 74 89 56 0 0 50 13 0 0 0 12 21 0 0 0 0 0
87 95 103 146 102 143 119 41 63 74 88 43 48 21 30 26 4 0 0 0 0 8 3 0 0 34 3 2 1 5 120 27 63 0 0 2 0 0 1 22 6 4 5 1 0 0 0
86 102 97 142 158 134 111 66 33 98 78 45 48 49 92 6 13 1 0 0 0 1 2 0 8 12 0 0 41 46 209 158 50 0 0 0 2 0 0 0 0 0 0 0 0 0 0
92 102 108 141 135 148 115 30 23 108 111 42 1 33 79 32 2 0 0 0 0 10 2 0 65 88 49 189 178 259 136 199 118 4 0 0 0 0 0 0 0 0 0 0 0 0 0
92 113 122 124 132 160 86 41 54 85 86 27 5 69 75 37 22 0 0 0 0 5 35 41 60 53 182 81 14 4 0 42 80 59 77 0 1 0 0 0 0 0 0 0 0 0 0
83 85 76 112 135 137 76 61 95 64 69 12 0 96 82 39 22 0 0 0 171 182 76 353 397 257 131 146 5 0 0 0 1 0 10 13 0 0 0 0 0 0 0 0 0 0 0
87 90 81 117 106 94 69 48 43 13 31 3 0 3 42 85 0 0 0 43 124 111 186 99 27 170 434 409 28 0 0 0 0 0 0 0 0 0 0 0 0 0 0 0 0 0 0
68 58 3 36 138 106 80 81 42 27 8 1 8 22 24 124 15 0 0 0 170 273 67 10 36 109 289 0 90 4 2 0 1 0 0 0 0 0 0 0 0 0 0 0 0 0 0
65 1 20 44 69 78 97 81 7 18 0 9 0 0 21 32 5 137 86 221 559 100 5 7 11 10 289 31 18 236 34 0 0 0 0 0 0 0 0 0 0 0 0 0 0 0 0
46 42 55 50 48 62 66 35 12 7 0 0 1 2 35 28 38 291 216 262 409 148 109 0 0 63 176 237 251 12 122 0 0 0 0 0 0 0 0 0 0 0 0 0 0 0 0

GFSGBSN_con_sbcape_024.txt.gz
CAPE
6 2 3 0 0 0 0 0 0 0 0 0 0 0 0 0 0 0 0 0 1 1 7 3 4 0 0 0 0 0 59 167 0 0 0 0 0 0 0 0 0 0 2 40 50 62 47
17 14 9 1 0 4 0 0 0 0 0 0 0 0 0 0 0 0 0 0 0 3 6 4 0 0 0 0 0 0 0 0 0 0 0 0 0 0 0 0 0 0 58 13 16 35 18
19 14 18 10 14 4 0 0 0 0 0 0 0 0 0 0 0 0 0 0 0 0 4 4 0 0 0 0 0 0 0 0 0 0 0 0 0 0 0 0 0 0 30 91 40 22 8
15 21 19 16 16 8 3 0 0 0 0 0 0 0 0 0 0 0 0 0 0 0 1 0 0 0 0 0 0 0 0 0 0 0 0 0 0 0 0 0 0 0 0 9 52 37 23
28 22 26 17 16 16 13 0 0 0 0 0 0 0 0 0 0 0 0 0 0 0 0 0 0 0 0 0 0 0 0 0 0 0 0 0 0 0 0 0 0 0 0 0 7 12 15
35 33 29 29 18 14 18 17 0 0 0 0 0 0 0 0 0 0 0 0 0 0 0 0 0 0 0 0 0 0 0 0 0 0 0 0 0 0 0 0 0 0 0 0 0 0 2
55 17 37 27 27 24 19 24 21 0 0 0 0 0 0 0 0 0 0 0 0 0 0 0 0 0 0 0 0 0 0 0 0 0 0 0 0 0 0 0 0 0 0 0 0 0 0
67 70 55 28 12 23 25 22 9 8 0 0 0 0 0 0 0 0 0 0 0 0 0 0 0 0 0 0 0 0 0 0 0 0 0 0 0 0 0 0 0 0 0 0 0 0 0
78 73 75 23 35 29 32 28 10 6 0 2 0 0 0 0 0 0 0 0 0 0 0 0 0 0 0 0 0 0 0 0 0 0 0 0 0 0 3 0 0 0 0 0 0 0 0
69 55 69 79 52 52 37 39 17 18 6 3 0 0 0 0 0 0 0 0 0 0 0 0 0 0 0 0 0 0 0 0 0 0 0 0 0 0 0 0 0 0 0 0 0 0 0
86 70 58 70 61 45 37 32 29 18 19 7 2 0 0 0 0 0 0 0 0 0 0 0 0 0 0 0 0 0 0 0 0 0 0 0 0 0 0 4 0 0 0 0 1 0 0
80 83 80 69 58 58 49 36 29 23 24 8 6 0 0 0 0 0 0 0 0 0 0 0 0 0 0 0 0 0 0 0 0 0 0 0 0 0 0 1 0 0 0 0 0 0 0
58 85 98 81 66 48 51 50 42 36 31 14 14 0 0 0 0 0 0 1 2 1 0 0 0 0 0 0 0 0 0 0 0 0 0 0 0 0 0 0 0 8 0 0 0 0 0
77 115 114 92 80 62 56 77 43 34 31 33 18 0 0 0 0 0 4 66 0 0 0 0 0 0 0 0 0 0 0 0 0 0 0 0 0 0 0 0 0 0 0 0 0 0 1
62 80 127 117 95 81 80 79 69 39 37 48 35 2 1 0 0 0 47 25 0 0 0 0 0 0 0 0 0 0 0 0 0 0 0 6 7 0 0 1 0 0 0 0 0 0 0
48 82 111 90 68 96 99 72 67 55 53 53 51 32 7 0 0 0 33 3 0 0 0 0 0 0 0 0 0 0 0 0 0 0 0 0 19 0 9 0 0 0 0 23 6 3 2
51 79 91 105 78 98 85 86 95 88 48 61 60 30 18 0 1 4 5 3 0 0 0 0 0 0 0 0 0 0 0 0 0 0 3 10 0 0 0 0 0 0 0 0 0 0 0
38 56 78 95 124 122 103 95 95 88 73 57 51 22 24 0 1 0 20 6 0 0 0 0 2 0 0 0 0 0 0 0 0 0 10 4 0 0 0 0 0 0 0 0 0 0 0
29 40 70 111 123 79 91 99 99 76 65 46 30 75 44 0 0 0 4 16 0 0 0 3 0 0 0 0 0 0 0 38 12 11 0 0 0 2 0 0 0 0 0 0 0 0 0
25 38 67 106 132 93 103 105 93 87 85 51 73 58 102 26 0 0 0 1 0 0 0 0 0 0 0 0 0 4 40 25 26 5 0 0 0 0 0 0 0 4 1 0 0 0 0
29 37 63 88 97 91 118 99 71 48 91 67 67 43 28 3 0 0 0 0 0 0 0 2 0 0 0 0 0 0 24 19 37 0 0 0 0 0 0 0 0 0 0 2 0 0 0
32 46 64 65 74 101 130 114 15 63 88 57 60 73 47 6 3 0 0 0 0 0 0 0 0 0 0 0 0 0 26 0 6 4 0 0 0 0 0 0 0 0 0 0 0 0 0
41 50 69 76 85 118 141 94 28 57 27 55 8 2 62 0 2 1 0 0 0 0 0 0 0 0 0 0 13 0 23 17 24 0 0 0 0 0 0 0 0 0 0 0 0 0 0
43 69 88 79 98 130 141 93 89 62 23 78 33 6 60 4 25 1 0 0 0 0 0 0 0 0 2 0 0 0 0 6 19 27 0 0 0 0 0 0 0 0 0 0 0 0 0
57 83 95 89 77 100 112 89 127 55 24 11 27 15 65 22 23 18 1 0 0 0 0 0 39 2 0 0 0 0 0 0 0 0 0 0 0 0 0 0 0 0 0 0 0 0 0
58 76 84 83 89 100 96 96 54 25 18 12 13 2 13 32 9 37 0 0 0 0 0 106 52 1 58 0 0 0 0 0 0 0 0 0 0 0 0 0 0 0 0 0 0 0 0
71 76 77 81 82 84 74 93 36 29 39 24 19 13 13 16 47 25 1 0 0 0 1 68 40 84 0 0 0 0 0 0 0 0 0 0 0 0 0 0 0 0 0 0 0 0 0
74 77 76 80 89 90 75 68 7 46 59 39 25 29 45 35 0 49 0 0 0 1 12 2 29 8 0 0 0 0 0 0 0 0 0 0 0 0 0 0 0 0 0 0 0 0 0
62 69 61 73 92 90 50 27 8 33 100 41 15 20 39 29 3 6 0 0 0 0 35 0 0 0 0 0 0 0 0 0 0 0 0 0 0 0 0 0 0 0 0 0 0 0 0

GFSGBSN_con_sbcape_027.txt.gz
CAPE
14 12 14 15 13 11 0 0 0 0 0 0 0 0 0 0 0 0 0 0 0 0 1 0 7 1 0 0 0 0 0 9 0 0 0 0 0 0 0 0 0 0 0 0 53 77 56
7 20 17 15 16 9 0 13 5 0 0 0 0 0 0 0 0 0 0 0 0 0 0 0 2 0 0 0 0 0 0 0 0 0 0 0 0 0 0 0 0 0 2 49 55 36 56
25 28 28 19 15 13 15 4 7 4 0 0 0 0 0 0 0 0 0 0 0 0 0 0 0 0 0 0 0 0 0 0 0 0 0 0 0 0 0 0 0 0 72 76 33 2 3
36 30 29 29 22 22 12 5 0 1 0 0 0 0 0 0 0 0 0 0 0 0 0 0 0 0 0 0 0 0 0 0 0 0 0 0 0 0 0 0 0 0 0 0 0 47 23
40 35 36 23 29 18 24 17 7 0 1 0 0 0 0 0 0 0 0 0 0 0 0 0 0 0 0 0 0 0 0 0 0 0 0 0 0 0 0 0 0 0 0 0 19 38 0
53 42 39 32 16 24 21 19 20 7 0 0 0 0 0 0 0 0 0 0 0 0 0 0 0 0 0 0 0 0 0 0 0 0 0 0 0 0 0 0 0 0 0 0 0 8 35
85 71 51 43 40 28 19 23 17 20 9 0 7 0 0 0 0 0 0 0 0 0 0 0 0 0 0 0 0 0 0 0 0 0 0 0 0 0 0 0 0 0 0 0 0 0 8
46 69 83 54 40 50 24 33 24 16 14 1 14 0 0 0 0 0 0 0 0 0 0 0 0 0 0 0 0 0 0 0 0 0 0 0 0 0 0 0 0 0 0 0 0 0 0
67 54 78 85 75 49 38 24 32 22 13 0 0 0 0 0 0 0 0 0 0 0 0 0 0 0 0 0 0 0 0 0 0 0 0 0 0 0 0 0 0 0 0 0 0 0 0
83 71 49 75 81 76 55 31 24 30 19 1 0 0 0 0 0 0 0 0 0 0 0 0 0 0 0 0 0 0 0 0 0 0 0 0 0 0 0 0 0 0 0 0 0 0 0
63 86 68 61 67 56 50 49 34 28 36 21 0 0 0 0 0 0 0 0 0 0 0 0 0 0 0 0 0 0 0 0 0 0 0 0 0 0 0 0 0 0 0 0 0 0 0
49 38 77 68 53 53 46 55 37 26 41 24 12 1 0 0 0 0 0 0 0 0 0 0 0 0 0 0 0 0 0 0 0 0 0 0 0 0 0 0 0 0 0 0 0 0 0
45 34 34 68 57 65 54 54 49 34 36 29 27 14 0 0 0 0 0 20 17 0 0 0 0 0 0 0 0 0 0 0 0 0 0 0 0 0 0 0 0 0 0 0 0 0 0
51 28 37 37 80 61 70 45 50 48 37 29 30 30 2 0 0 0 45 106 3 0 0 0 0 0 0 0 0 0 0 0 0 0 0 0 0 0 0 0 0 0 0 0 0 0 0
92 53 34 39 51 82 100 61 40 64 55 53 37 44 37 0 0 0 111 34 0 0 0 0 0 0 0 0 0 0 0 0 0 0 0 0 0 0 0 0 0 0 0 0 0 0 0
116 80 53 34 34 70 121 91 43 65 63 52 26 28 33 11 0 0 47 5 1 0 0 0 0 0 0 0 0 0 0 0 0 0 0 0 0 0 0 0 0 1 0 0 0 0 0
121 87 59 40 38 87 81 99 54 85 69 61 26 50 26 11 1 0 4 7 9 0 0 0 0 0 0 0 0 0 0 0 0 0 0 0 0 0 0 0 0 0 0 0 0 0 0
95 91 47 45 42 90 117 94 72 80 86 65 36 31 47 21 24 0 0 0 0 0 0 0 0 0 0 0 0 0 0 0 0 0 0 0 0 0 0 0 0 0 0 0 0 0 0
93 83 41 41 57 113 114 95 53 93 72 19 27 76 69 26 19 0 0 0 0 0 0 0 0 0 0 0 0 0 0 0 0 0 0 0 0 0 0 0 0 0 0 0 0 0 0
141 78 41 37 67 93 116 85 79 104 100 27 66 60 85 87 0 3 0 0 4 0 0 0 0 0 0 0 0 0 0 0 0 0 0 0 0 0 0 0 0 19 13 0 0 0 0
142 63 39 33 66 72 87 87 81 91 109 40 63 43 7 32 15 13 1 0 2 0 0 0 0 0 0 0 0 0 3 0 0 0 0 0 0 0 0 0 0 0 0 0 0 0 0
51 56 30 26 49 43 99 93 87 102 135 45 45 77 75 6 6 12 4 1 0 1 0 0 0 0 0 0 0 0 0 0 0 0 0 0 0 0 0 0 0 0 0 0 0 0 0
116 44 28 23 41 88 94 91 66 114 145 51 24 2 51 1 1 11 1 0 0 0 0 0 0 0 0 0 0 0 0 0 0 0 0 0 0 0 0 0 0 0 0 0 0 0 0
110 38 34 32 58 101 89 41 55 123 47 68 28 17 64 10 7 0 0 5 0 0 0 0 0 0 0 0 0 0 0 0 1 0 0 0 0 0 0 0 0 0 0 0 0 0 0
38 27 43 46 69 81 69 51 67 55 59 0 13 17 34 43 0 8 0 0 1 0 0 0 0 0 0 0 0 22 2 2 0 0 0 0 0 0 0 0 0 0 0 0 0 0 0
28 39 43 56 70 58 40 49 64 87 32 2 12 16 21 16 0 24 0 0 0 0 0 0 0 1 0 0 0 4 41 0 0 0 0 0 0 0 0 0 0 0 0 0 0 0 0
34 43 39 44 50 49 50 63 51 63 74 36 10 6 34 30 10 52 23 0 0 0 0 0 37 11 0 0 0 0 0 0 0 0 0 0 0 0 0 0 0 0 0 0 0 0 0
38 32 42 59 70 65 86 88 88 74 82 28 4 35 18 12 0 11 10 6 0 0 0 0 97 16 0 2 0 0 0 0 0 0 0 0 0 0 0 0 0 0 0 0 0 0 0
39 54 59 56 58 65 79 100 81 76 52 35 17 76 54 33 5 0 0 0 0 0 0 0 0 18 4 0 0 0 0 0 0 0 0 0 0 0 0 0 0 0 0 0 0 0 0

GFSGBSN_con_sbcape_033.txt.gz
CAPE
11 16 14 13 6 4 10 13 13 6 11 7 2 0 9 3 0 0 0 0 0 0 0 0 1 0 0 0 0 0 0 0 0 0 0 0 0 0 0 0 0 0 0 0 0 85 108
23 25 22 30 21 6 6 19 17 11 9 0 0 5 0 2 0 0 0 0 0 0 0 0 0 0 0 0 0 0 0 0 0 0 0 0 0 0 0 0 0 0 0 16 45 140 120
47 35 38 33 31 24 5 4 11 18 14 3 0 0 0 2 1 0 0 0 0 0 0 0 0 0 0 0 0 0 0 0 0 0 0 0 0 0 0 0 0 0 29 16 44 84 77
28 18 45 38 31 29 27 6 3 15 18 16 4 0 0 0 0 0 0 0 0 0 0 0 0 0 0 0 0 0 0 0 0 0 0 0 0 0 0 0 0 0 0 0 0 19 1
31 27 45 31 36 33 28 32 23 4 22 22 18 1 0 0 0 0 0 0 0 0 1 0 0 0 0 0 0 0 0 0 0 0 0 0 0 0 0 0 0 0 0 0 25 72 12
37 47 35 59 46 48 35 35 28 26 7 25 22 12 1 0 0 0 0 0 0 0 0 0 0 0 0 0 0 0 0 0 0 0 0 0 0 0 0 0 2 0 0 0 8 54 35
19 28 37 52 55 74 51 40 35 28 24 24 21 22 12 0 0 0 0 0 0 0 0 0 0 0 0 0 0 0 0 0 0 0 0 0 0 0 0 0 0 0 0 0 0 0 55
73 54 18 35 68 71 54 50 41 33 27 25 19 13 8 0 1 0 0 0 0 0 0 0 0 0 0 0 0 0 0 0 0 0 0 0 0 0 0 0 0 0 0 1 0 0 0
55 66 68 52 29 59 89 58 44 34 33 21 21 17 3 0 0 0 0 0 0 0 0 0 0 0 0 0 0 0 0 0 0 0 0 0 0 0 0 0 0 0 0 0 0 0 0
60 67 68 66 68 63 64 88 62 48 33 27 14 20 4 0 1 0 0 0 0 0 0 0 0 0 0 0 0 0 0 0 0 0 0 0 0 0 0 0 0 0 0 0 0 0 0
61 54 63 66 80 69 56 53 79 84 37 34 25 20 8 3 0 0 0 0 0 0 0 0 0 0 0 0 0 0 0 0 0 0 0 0 0 0 0 0 0 0 0 0 0 0 0
106 83 71 62 70 70 62 41 45 73 58 37 30 24 18 13 12 0 0 0 0 0 0 0 0 0 0 0 0 0 0 0 0 0 0 0 0 0 0 0 0 0 0 0 0 0 0
101 99 95 80 71 72 79 59 45 62 46 53 48 30 23 31 10 0 0 0 11 1 0 0 0 0 0 0 0 0 0 0 0 0 0 0 0 0 0 0 0 0 0 0 0 0 0
90 91 88 98 93 78 75 72 45 57 93 55 58 39 29 15 36 0 16 21 1 0 0 0 0 0 0 0 0 0 0 0 0 0 0 0 0 0 0 0 0 0 0 1 0 0 0
90 93 92 83 89 81 74 69 60 40 72 60 38 38 42 23 2 0 48 35 0 0 0 0 0 0 0 0 0 0 0 0 0 0 0 0 0 0 0 0 0 0 0 0 0 0 0
95 88 87 84 79 79 77 69 62 48 49 108 15 25 26 31 20 16 19 2 0 0 0 0 0 0 0 0 0 0 0 0 0 0 0 0 0 0 0 0 0 0 0 1 3 0 0
101 95 85 73 79 59 66 72 72 37 52 98 40 21 3 67 86 54 1 3 0 0 0 0 1 0 0 0 0 0 0 0 0 0 0 0 0 0 0 0 0 0 0 0 0 0 0
86 87 108 84 64 76 63 72 55 52 65 78 21 8 1 39 39 8 4 0 0 0 0 0 1 4 10 0 0 0 0 0 0 0 0 0 0 0 0 0 0 0 0 0 7 0 0
93 136 125 131 92 73 80 72 44 49 85 39 6 44 36 1 11 10 0 14 1 0 0 0 0 2 4 0 0 0 0 0 0 0 0 0 0 0 0 0 0 0 0 0 0 0 0
77 147 162 162 166 115 86 70 33 55 89 30 24 6 87 53 0 3 29 16 11 0 0 0 0 0 5 3 0 0 0 0 0 0 0 0 0 0 0 0 0 0 0 0 0 0 0
90 128 69 65 82 137 119 71 34 53 95 11 23 41 14 17 18 17 15 2 11 4 0 0 0 2 7 0 1 0 0 0 0 0 0 0 0 0 0 0 0 0 0 0 0 0 1
159 143 126 28 18 76 166 59 26 55 91 43 7 20 1 15 0 9 29 30 8 1 0 0 0 0 6 10 0 0 0 0 0 0 0 0 0 0 0 0 0 0 0 0 0 0 0
173 85 76 116 87 84 147 59 22 57 67 17 14 0 0 16 4 11 4 23 31 14 0 0 0 0 7 1 20 0 0 0 0 0 0 0 0 0 0 0 0 0 0 0 0 0 0
141 82 71 156 161 104 53 32 24 58 52 27 1 0 20 24 31 2 2 10 28 16 0 0 0 0 0 17 0 0 0 0 0 0 0 0 0 0 0 0 0 0 0 0 0 0 0
129 85 111 156 158 133 37 33 24 66 80 4 0 5 67 45 57 17 2 0 37 57 12 0 0 0 0 7 0 0 0 0 0 0 0 0 0 0 0 0 0 0 0 0 0 0 0
185 143 167 140 160 79 51 33 22 65 65 0 0 0 83 43 44 55 21 1 2 25 20 5 0 0 0 0 2 0 0 1 0 0 0 0 0 4 0 0 0 0 0 0 0 0 0
160 201 128 191 89 63 59 20 35 58 31 0 0 0 34 43 19 82 61 7 12 7 11 6 12 1 0 0 0 0 0 0 0 0 0 0 0 0 0 0 0 0 0 0 0 0 0
123 62 116 95 57 43 29 19 38 35 36 0 1 0 0 5 9 25 6 24 13 2 0 1 9 10 0 0 0 0 0 0 0 0 0 0 0 0 0 0 0 0 0 0 0 0 0
101 116 77 48 32 55 21 29 25 19 49 5 14 12 0 0 17 14 0 0 0 3 0 0 0 0 0 0 0 0 0 0 0 0 0 0 0 0 0 0 0 0 0 0 0 0 0

GFSGBSN_con_sbcape_036.txt.gz
CAPE
36 23 21 19 23 18 6 12 23 16 13 11 0 0 0 0 3 2 0 0 0 0 0 0 0 0 0 0 0 0 0 0 0 0 0 0 0 0 0 0 0 0 3 0 12 2 367
20 37 37 33 29 19 16 16 16 18 16 14 10 0 0 0 0 2 0 0 0 0 0 0 0 0 0 0 0 0 0 0 0 0 0 0 0 0 0 0 1 0 14 147 37 314 531
30 26 41 36 45 27 23 26 19 15 20 21 17 12 1 0 0 0 0 0 0 0 0 0 0 0 0 0 0 0 0 0 0 0 0 0 0 0 0 0 0 0 123 80 180 384 473
31 35 30 38 44 42 25 25 27 22 16 19 24 16 6 0 0 0 0 0 0 0 0 0 1 0 0 0 0 0 0 0 0 0 0 0 0 0 0 0 0 10 49 15 18 143 211
21 25 37 51 47 41 48 26 26 24 22 15 20 18 10 0 0 0 0 0 0 0 0 0 0 0 0 0 0 0 0 0 0 0 0 0 0 0 0 0 8 11 28 19 72 108 244
27 21 27 43 55 57 62 43 42 30 24 16 10 7 14 8 0 0 0 0 0 0 0 0 0 0 0 0 0 0 0 0 0 0 0 0 0 0 0 0 47 38 38 58 154 262 225
25 39 46 40 47 40 32 52 59 39 29 23 15 7 10 8 0 0 0 0 0 0 0 0 0 0 0 0 0 0 0 0 0 0 0 0 0 0 0 0 0 5 26 47 45 18 98
69 57 28 61 61 51 11 37 50 45 34 33 22 10 10 9 0 0 2 1 0 0 0 0 0 0 0 0 0 0 0 0 0 0 0 0 0 0 0 0 0 18 17 46 19 0 5
61 76 64 65 58 79 46 44 35 43 18 42 24 16 14 8 1 6 8 0 0 0 0 0 0 0 0 0 0 0 0 0 0 0 0 0 0 0 0 3 10 22 23 14 8 0 0
52 50 60 61 70 76 75 68 52 41 27 26 34 21 20 1 1 6 1 0 0 0 1 0 0 0 0 0 0 0 0 0 0 0 0 0 0 0 0 0 5 15 0 0 3 0 32
58 69 59 76 83 70 63 64 59 46 42 31 36 32 23 17 2 11 0 0 0 11 0 0 0 0 0 0 0 0 0 0 0 0 0 0 0 0 0 0 0 7 0 6 11 34 32
64 65 67 73 75 72 76 71 70 47 35 32 40 38 28 45 16 2 0 2 6 42 0 0 0 0 0 0 0 0 0 0 0 0 0 3 0 0 0 0 0 0 0 1 13 43 64
55 58 72 81 80 82 80 80 74 65 42 40 58 39 47 44 9 4 11 101 120 5 0 0 0 0 0 0 0 0 0 0 0 0 0 0 0 0 0 0 0 0 12 93 49 69 72
58 62 66 78 79 90 80 70 63 77 46 44 47 55 37 25 9 4 56 164 1 0 0 0 0 0 0 0 0 0 0 0 0 0 1 0 5 0 0 0 1 0 44 81 18 6 31
74 63 66 71 75 74 89 77 70 75 56 47 70 24 117 27 3 11 109 56 0 0 0 0 0 0 0 0 0 0 0 0 0 0 0 0 1 0 0 0 0 1 17 18 96 36 29
73 75 61 63 73 71 73 86 74 86 71 61 92 43 73 74 19 26 39 35 0 0 0 0 0 0 0 0 0 0 0 0 0 0 0 0 4 0 0 0 0 9 8 49 105 60 29
75 62 60 57 65 70 73 88 77 83 93 101 131 37 21 100 125 19 26 7 0 0 1 1 0 0 0 0 0 0 0 0 0 0 0 0 6 29 13 13 18 19 32 37 84 93 60
61 50 68 72 60 62 74 74 76 78 74 117 89 31 98 82 85 21 36 0 0 0 30 14 26 9 0 0 0 0 0 0 0 0 0 0 0 45 15 2 1 19 22 80 102 38 23
46 41 32 70 57 65 65 72 68 65 68 149 49 70 158 71 42 62 1 0 25 24 8 77 15 47 65 9 0 0 0 0 0 0 0 0 1 26 19 0 0 1 0 0 13 4 48
37 54 44 12 69 83 88 75 63 55 63 89 41 39 75 84 17 64 0 0 20 49 44 54 31 16 84 86 10 0 0 0 0 0 0 8 3 0 12 2 7 14 3 9 20 101 59
88 95 74 66 69 58 98 86 78 53 51 42 57 64 23 22 73 6 10 0 0 32 23 72 92 54 68 67 50 28 0 10 0 0 0 13 12 3 2 0 0 0 0 0 2 5 91
83 99 93 72 80 71 70 109 73 53 50 24 30 72 78 38 37 3 5 30 2 13 22 6 102 85 58 76 75 77 63 70 45 0 0 10 4 7 4 0 0 0 0 0 0 0 3
81 79 98 113 89 111 102 92 114 49 44 13 74 15 88 32 61 47 0 25 4 11 22 2 11 61 42 79 108 54 0 0 0 58 8 32 31 7 8 4 0 0 0 0 11 12 57
149 173 166 126 140 124 88 75 84 46 34 63 26 35 64 70 96 14 0 20 55 30 2 4 24 44 21 69 37 53 17 0 2 20 33 34 15 50 32 2 45 0 7 26 24 21 33
76 221 262 182 177 119 142 102 83 36 34 56 59 67 52 106 27 34 6 15 49 99 96 12 8 52 64 49 41 17 50 39 25 56 34 50 56 39 112 19 0 0 0 1 40 37 39
59 128 229 171 150 61 60 87 85 47 40 28 28 58 112 91 24 39 74 23 55 97 128 54 33 259 174 177 76 21 0 0 60 48 0 0 2 165 0 29 22 0 3 0 2 58 89
41 64 153 121 64 49 5 38 43 44 39 12 71 143 136 36 45 64 97 90 49 83 113 85 127 150 87 128 315 122 5 3 0 81 4 1 2 59 73 85 7 0 0 0 36 168 47
124 109 62 46 50 61 42 11 41 33 50 17 16 49 164 80 61 97 113 100 125 150 158 89 313 218 167 93 146 156 169 61 45 6 20 32 87 39 59 100 24 0 0 16 153 17 0
56 51 41 48 50 49 20 35 15 37 62 9 15 44 92 154 105 9 4 1 3 93 138 190 0 11 9 37 187 202 194 8 134 70 12 51 77 134 82 48 90 0 25 0 8 0 0

GFSGBSN_con_sbcape_042.txt.gz
CAPE
17 20 14 6 8 3 31 26 30 22 13 11 19 16 15 5 0 0 0 0 0 2 1 0 0 0 0 0 0 0 0 0 0 0 0 0 0 0 0 2 0 0 0 0 3 0 0
19 18 20 22 15 0 4 7 20 23 20 20 9 19 18 20 7 2 0 0 0 0 0 0 0 0 0 0 0 0 0 0 0 0 0 0 0 0 0 0 0 1 0 0 7 0 3
19 18 35 36 39 31 6 10 9 23 29 23 24 19 14 19 16 8 0 0 0 0 0 1 0 0 0 0 0 0 0 0 0 0 0 0 0 0 0 0 0 0 0 0 6 17 61
29 23 23 37 36 32 37 36 25 20 34 36 26 23 16 12 13 10 0 0 0 0 0 0 0 0 0 0 0 0 0 0 0 0 0 0 0 0 0 0 0 0 0 0 11 40 20
22 29 30 47 42 33 29 35 39 35 34 37 34 22 18 13 8 9 0 0 0 0 1 0 0 0 0 0 0 0 0 0 0 0 0 0 0 0 0 0 0 0 0 8 42 2 43
22 29 41 45 39 45 42 39 37 39 43 35 42 36 19 18 14 5 0 0 0 0 0 0 0 0 0 0 0 0 0 0 0 0 0 0 0 0 0 0 0 0 5 3 50 38 17
22 23 23 41 47 48 26 40 44 39 38 39 33 29 34 21 20 6 0 0 0 2 0 0 0 0 0 0 0 0 0 0 0 0 0 0 0 0 0 0 0 0 0 6 60 43 37
52 31 31 29 60 64 36 48 32 47 42 44 43 52 41 29 18 8 1 0 0 0 0 0 0 0 0 0 0 0 0 0 0 0 0 0 0 0 0 0 0 0 0 12 8 21 0
70 65 41 46 53 69 60 72 64 43 51 29 35 39 38 29 16 0 0 0 0 1 1 0 0 0 0 0 0 0 0 0 0 0 0 0 0 2 0 0 0 0 0 3 28 2 7
60 57 61 47 55 65 62 70 66 60 61 50 30 30 12 10 0 0 0 0 0 0 0 0 0 0 0 0 0 0 0 0 0 0 0 0 0 0 0 0 0 0 0 3 8 12 3
52 49 53 64 71 73 78 79 82 82 76 56 41 40 4 7 6 1 20 5 35 118 0 0 0 0 0 0 0 0 0 0 0 0 0 0 0 0 0 0 0 0 0 23 2 3 68
54 57 58 62 63 64 68 71 77 91 91 85 69 60 31 12 23 0 1 3 105 0 0 0 0 0 0 0 0 0 0 0 0 0 0 0 0 0 0 0 0 11 6 24 11 0 43
53 65 73 64 55 55 56 59 60 64 78 86 75 74 63 9 17 0 18 70 49 0 0 0 0 0 0 0 0 0 0 0 0 0 0 0 0 3 0 0 0 0 11 14 25 68 108
62 76 77 75 73 67 53 54 53 60 70 74 56 59 62 14 1 13 116 161 0 0 0 0 0 0 0 0 0 0 0 0 0 0 0 0 2 0 0 0 5 0 0 33 20 10 64
85 72 63 63 74 74 70 64 61 62 67 62 50 88 103 86 40 38 32 60 0 0 0 0 0 0 0 0 0 0 0 0 0 0 0 1 9 1 0 0 0 15 2 16 29 0 0
88 77 64 52 51 55 62 59 64 68 54 51 109 49 80 64 102 77 59 13 1 0 0 0 0 0 2 0 0 0 0 0 0 0 0 2 4 5 0 2 0 0 5 105 70 60 60
70 65 61 59 56 55 58 69 69 67 63 54 48 46 47 48 156 66 5 4 0 0 0 0 0 0 0 13 12 0 0 0 0 0 0 3 3 0 12 4 0 0 0 24 102 125 125
58 51 53 55 59 60 70 85 82 65 57 58 31 12 74 91 63 37 19 0 0 0 0 0 0 0 0 0 0 7 15 4 0 1 1 1 28 0 0 0 0 0 2 13 131 61 169
51 50 57 66 62 61 68 69 72 60 61 46 17 25 81 74 6 1 25 1 0 0 0 0 0 0 17 20 59 20 18 57 12 9 1 33 24 20 22 16 25 1 1 20 57 145 151
63 63 71 77 65 77 73 66 71 62 60 38 10 5 62 49 22 6 23 2 0 0 1 0 1 16 4 5 24 35 65 14 109 13 0 66 46 0 4 17 43 30 24 38 100 99 34
68 69 64 62 37 25 37 72 56 59 56 37 11 12 8 22 22 24 37 0 0 1 0 0 13 34 59 59 30 1 6 54 23 18 10 84 51 14 37 45 31 50 9 0 20 59 83
70 70 67 76 83 91 60 48 45 52 55 23 1 23 63 17 33 43 40 15 3 0 0 0 0 0 64 81 84 0 4 1 21 38 16 71 31 65 87 68 28 8 17 29 2 4 15
87 80 73 72 74 83 88 62 20 33 49 23 7 2 67 12 66 51 27 6 0 10 20 0 0 3 64 36 72 300 43 0 0 5 69 68 77 117 82 110 58 2 3 11 8 14 10
63 67 72 70 65 71 79 73 52 43 82 3 2 16 40 39 98 36 5 0 2 24 26 12 18 77 68 269 429 155 38 0 1 5 48 76 94 116 102 107 25 0 2 0 0 0 0
65 67 75 72 71 76 74 77 71 58 66 46 34 28 38 94 38 31 5 24 31 52 52 17 27 0 169 481 500 81 1 0 0 1 0 12 80 105 113 65 7 0 0 0 0 0 1
39 54 72 68 58 47 52 63 80 81 107 56 19 36 46 82 111 0 38 27 47 77 75 36 8 131 356 232 1 16 0 0 1 0 0 0 2 18 135 56 29 0 0 0 24 7 5
46 47 43 63 184 116 93 57 70 86 119 112 27 63 60 66 124 229 83 81 52 44 114 20 75 137 361 120 122 87 54 0 13 11 62 15 9 14 99 81 75 4 0 3 11 34 114
34 39 41 52 115 145 181 110 68 71 109 73 29 69 101 124 126 13 54 321 175 224 156 20 185 270 242 76 141 132 101 7 0 6 119 65 35 56 121 91 15 30 63 68 181 142 296
20 12 34 43 52 127 183 149 91 64 85 44 70 99 195 398 243 207 66 78 1 27 240 200 79 118 74 243 20 212 278 332 78 29 14 110 13 36 52 58 1 0 54 199 336 340 394

GFSGBSN_con_sbcape_045.txt.gz
CAPE
2 1 1 1 9 15 10 5 15 30 28 24 6 15 18 14 17 13 7 0 0 0 0 0 1 3 0 0 0 0 0 0 0 0 0 0 0 0 0 0 0 0 0 0 0 0 0
7 7 17 8 8 9 13 14 22 9 7 22 24 13 10 17 12 13 12 3 0 0 0 0 1 2 0 0 0 0 0 0 0 0 0 0 0 0 0 0 0 0 0 0 0 0 0
24 26 26 33 15 17 15 31 32 26 22 20 23 22 19 11 14 7 7 3 0 0 0 1 2 5 0 0 0 0 0 0 0 0 0 0 0 0 0 0 0 0 0 0 0 0 0
19 18 15 33 29 30 34 33 32 34 34 37 35 28 18 18 13 5 0 0 0 0 0 0 2 0 0 0 0 0 0 0 0 0 0 0 0 0 0 0 0 0 0 0 0 0 0
23 20 19 38 41 39 44 43 33 38 38 33 44 28 20 15 7 4 0 0 0 0 0 0 0 0 0 0 0 0 0 0 0 0 0 0 0 0 0 0 0 0 0 0 0 1 0
25 26 32 48 43 46 49 49 44 39 37 40 44 43 16 13 13 5 0 0 0 0 0 0 0 0 0 0 0 0 0 0 0 0 0 0 0 0 0 0 0 0 0 0 0 0 5
21 25 31 36 54 40 33 40 45 40 48 43 48 39 44 24 26 15 0 0 0 0 0 0 0 0 0 0 0 0 0 0 0 0 0 0 0 0 0 0 0 0 0 0 0 2 9
35 38 37 41 48 45 42 56 56 52 47 59 46 36 44 39 24 16 0 0 0 0 0 0 0 0 0 0 0 0 0 0 0 0 0 0 0 0 0 0 0 0 0 0 0 2 0
63 49 47 54 54 55 56 63 57 53 55 52 55 47 42 17 10 0 0 0 0 0 0 0 0 0 0 0 0 0 0 0 0 0 0 0 0 0 0 0 0 0 0 0 0 1 2
62 60 59 54 60 65 62 67 61 60 59 54 54 58 40 8 0 0 0 0 0 0 1 0 0 0 0 0 0 0 0 0 0 0 0 0 0 0 0 0 0 0 0 0 0 0 0
63 72 77 85 78 67 61 72 70 77 65 61 57 55 49 23 0 0 0 0 0 52 0 0 0 0 0 0 0 0 0 0 0 0 0 0 0 0 0 0 0 0 0 0 0 0 0
72 72 81 70 83 83 59 60 67 71 63 69 64 66 62 14 0 0 0 0 5 18 0 0 0 0 0 0 0 0 0 0 0 0 0 0 0 0 0 0 0 0 1 0 0 0 0
52 58 66 72 86 85 81 59 53 58 66 61 76 66 58 1 0 0 0 5 11 7 0 0 0 0 0 0 0 0 0 0 0 0 0 0 0 0 0 0 0 0 1 0 0 0 0
59 62 59 73 68 66 73 64 66 64 62 51 58 50 51 1 0 0 6 22 4 0 0 0 0 0 0 0 0 0 0 0 0 0 0 0 0 0 0 0 0 0 0 0 0 0 0
79 72 68 66 81 79 77 78 66 64 59 50 51 40 34 3 0 22 34 45 0 0 0 0 0 0 4 0 0 0 0 0 0 0 0 0 0 0 0 0 0 0 0 0 4 0 0
76 66 70 72 82 81 74 66 64 62 55 48 41 43 17 0 0 54 39 7 0 0 0 0 0 0 0 14 1 0 0 0 0 0 0 0 0 0 0 0 0 0 0 18 24 7 0
78 92 80 80 79 72 73 75 76 66 55 49 30 31 8 0 43 44 2 0 0 0 0 0 0 0 0 0 0 0 0 0 0 0 0 0 0 0 0 0 0 0 0 0 15 6 4
86 84 77 77 79 70 68 72 79 64 53 43 23 6 1 0 21 24 6 0 0 0 0 0 0 0 0 0 0 0 5 6 0 0 0 0 0 0 0 0 0 0 0 0 0 0 6
83 80 73 80 77 64 57 67 77 75 68 36 11 15 10 0 5 1 3 2 0 0 0 0 0 0 0 0 0 0 34 2 7 6 0 0 0 0 0 0 0 0 0 0 0 0 16
83 70 70 75 72 62 66 67 72 75 71 45 3 1 24 31 0 1 2 6 4 2 0 0 0 0 0 0 0 15 21 26 1 3 0 0 0 0 0 0 0 0 0 0 0 0 0
72 67 63 61 64 63 62 68 80 73 58 54 3 2 1 22 9 7 1 0 5 6 1 0 0 0 0 0 0 0 31 13 0 0 0 1 0 0 0 0 0 3 0 0 0 0 6
69 70 66 74 70 61 77 72 48 65 70 64 0 4 12 0 16 16 13 0 0 0 0 0 0 0 0 0 0 0 41 55 7 0 0 0 0 4 0 0 0 0 0 0 0 3 19
86 83 100 101 91 78 80 53 33 34 54 58 0 0 1 8 9 27 2 0 0 1 0 0 0 0 0 0 0 112 283 69 46 0 0 0 0 0 0 0 0 0 0 0 0 0 0
93 108 108 99 90 85 76 67 67 46 54 22 0 1 1 13 2 3 1 2 4 19 0 0 0 0 0 0 485 334 122 19 2 0 0 2 0 0 0 14 1 0 0 0 0 0 0
67 73 86 81 75 72 64 67 62 63 94 60 0 11 0 0 0 2 0 0 1 1 2 0 0 0 0 1 155 91 36 3 1 0 16 0 5 0 6 6 0 0 0 0 0 0 0
48 56 75 82 84 86 73 51 48 44 80 41 17 5 13 1 0 0 2 0 0 0 0 0 0 0 0 0 59 10 22 13 3 0 0 0 6 1 0 23 1 0 0 0 0 0 0
68 71 61 68 62 58 63 65 59 42 65 61 27 5 22 7 0 4 3 0 0 0 0 0 0 0 5 3 0 5 1 18 9 0 0 0 0 0 1 1 3 10 0 0 0 0 0
51 56 55 55 56 75 84 63 53 48 68 72 34 14 12 4 0 59 31 4 1 0 0 0 5 5 0 8 18 9 9 0 0 0 22 21 5 2 4 4 14 0 27 8 0 0 32
44 45 38 27 35 37 53 55 59 59 72 81 27 10 0 16 34 74 134 26 58 73 38 0 0 0 0 0 19 33 31 2 0 0 0 51 1 0 7 0 9 0 0 0 0 0 6

GFSGBSN_con_sbcape_048.txt.gz
CAPE
18 18 13 11 3 5 5 0 7 10 17 5 4 19 16 14 17 14 10 2 4 6 0 0 0 6 0 0 0 0 0 0 0 0 0 0 0 0 0 0 0 0 0 0 0 0 10
26 28 29 27 10 6 1 7 23 25 23 27 19 22 16 15 14 13 8 0 0 0 0 0 0 14 0 0 0 0 0 0 0 0 0 0 0 0 0 0 0 0 0 0 0 0 0
14 17 19 33 33 21 16 25 29 38 41 46 39 41 32 15 14 12 4 0 0 0 0 0 0 7 1 0 0 0 0 0 0 0 0 0 0 0 0 0 0 0 0 0 0 0 0
24 21 18 37 39 37 40 34 42 38 35 45 49 48 40 20 8 4 0 0 0 0 0 0 0 2 0 0 0 0 0 0 0 0 0 0 0 0 0 0 0 0 0 0 0 0 0
26 21 25 44 36 34 33 35 42 28 32 45 37 41 40 28 6 0 0 0 0 0 0 0 1 0 0 0 0 0 0 0 0 0 0 0 0 0 0 0 0 0 0 0 0 0 0
20 26 25 30 43 46 42 42 40 48 43 47 47 37 48 27 8 0 0 0 0 0 0 0 3 0 0 0 0 0 0 0 0 0 0 0 0 0 0 0 0 0 0 0 0 0 0
27 32 26 28 35 25 26 33 42 42 50 54 52 53 46 35 13 5 0 0 0 0 0 0 0 0 0 0 0 0 0 0 0 0 0 0 0 0 0 0 0 0 0 0 0 0 26
25 23 40 36 38 43 44 49 63 61 61 57 52 56 49 32 9 0 0 0 0 0 0 0 0 0 0 0 0 0 0 0 0 0 0 0 0 0 0 0 0 0 0 0 0 0 10
27 28 28 33 37 46 58 71 71 59 57 61 54 52 54 21 0 0 0 0 0 0 0 0 0 0 0 0 0 0 0 0 0 0 0 0 0 0 0 0 0 0 0 0 0 0 0
34 43 43 41 53 56 65 64 70 68 60 56 57 52 42 8 0 0 0 0 0 0 0 0 0 0 0 0 0 0 0 0 0 0 0 0 0 0 0 0 0 0 0 0 0 0 0
50 63 46 26 39 76 84 92 80 64 65 63 63 58 38 7 0 0 0 0 0 0 0 0 0 0 0 0 0 0 0 0 0 0 0 0 0 0 0 0 0 0 0 0 0 0 0
54 44 39 41 66 76 84 96 89 61 57 58 64 65 57 0 0 0 0 0 1 14 0 0 0 0 0 0 0 0 0 0 0 0 0 0 0 0 0 0 0 0 0 0 0 0 0
57 46 31 51 68 80 85 96 82 68 65 62 54 59 56 0 0 0 0 0 22 0 0 0 0 0 0 0 0 0 0 0 0 0 0 0 0 0 0 0 0 0 0 0 0 0 0
53 45 36 52 75 83 95 93 62 65 62 62 51 50 37 0 0 0 0 13 2 0 0 0 0 0 0 0 0 0 0 0 0 0 0 0 0 0 0 0 0 0 0 0 0 0 0
26 59 57 80 74 88 97 86 76 62 59 51 48 28 15 0 0 1 5 1 0 0 0 0 0 0 0 0 0 0 0 0 0 0 0 0 0 0 0 0 0 0 0 0 0 0 0
28 58 61 75 94 89 72 97 70 59 61 48 31 33 8 0 0 16 16 7 0 0 0 0 0 0 0 0 0 0 0 0 0 0 0 0 0 0 0 0 0 0 0 1 0 0 0
70 53 75 85 81 63 94 80 74 71 73 54 30 25 12 0 19 22 5 4 0 0 0 0 0 0 0 0 0 0 0 0 0 0 0 0 0 0 0 0 0 0 0 0 2 0 0
68 64 80 77 80 101 99 101 100 82 68 57 30 4 0 0 4 14 1 3 1 0 0 0 0 0 0 0 0 0 0 0 0 5 0 0 0 0 0 0 0 0 0 0 0 1 0
60 72 78 88 95 91 88 86 98 90 81 57 23 10 3 0 4 10 8 0 3 1 0 0 0 0 0 0 0 0 0 0 0 5 0 0 0 0 0 0 0 0 0 0 0 0 0
65 74 86 97 96 99 83 83 84 79 95 50 3 0 18 8 0 0 2 1 2 5 0 0 0 0 0 0 0 0 0 0 1 3 2 17 0 0 0 0 0 0 0 0 0 0 0
64 79 89 85 91 88 81 80 83 76 90 52 5 1 2 10 1 5 7 5 2 1 7 0 0 0 0 0 0 0 0 11 33 53 52 39 0 0 0 0 0 0 0 0 0 0 0
82 91 84 86 86 84 85 78 74 75 92 62 0 3 0 0 7 16 3 4 4 1 11 0 0 0 0 0 0 0 0 0 47 58 0 5 4 0 0 0 0 0 0 0 0 0 0
103 96 88 85 83 86 85 78 77 83 93 39 21 0 0 2 4 23 2 0 5 6 1 0 0 0 0 0 0 0 0 8 74 125 1 14 13 1 0 0 0 0 0 0 0 0 0
94 98 103 105 103 105 108 100 94 88 76 42 21 10 2 0 0 0 5 10 4 7 0 0 0 0 0 0 46 95 35 74 118 106 47 16 1 7 0 0 0 0 0 0 0 0 0
93 107 111 105 105 100 70 77 72 53 84 51 12 11 0 0 0 0 0 1 2 0 0 0 0 0 0 0 0 11 0 0 0 25 31 2 0 0 1 0 0 0 0 0 0 0 0
66 66 70 69 68 64 61 57 61 49 72 12 1 10 11 5 0 0 0 2 0 0 0 0 0 0 0 0 0 0 0 0 0 0 27 0 0 0 0 4 39 0 0 0 0 0 0
52 56 59 70 65 55 64 64 64 61 75 37 8 15 24 6 0 0 0 0 0 0 0 0 0 0 0 0 0 3 0 7 0 0 0 0 0 0 2 7 2 2 0 0 0 0 0
56 59 57 53 64 66 63 70 73 71 79 59 3 0 2 1 0 1 4 0 0 0 0 0 0 0 0 0 0 0 0 5 3 0 0 0 0 0 1 9 0 0 0 0 0 0 0
40 46 48 52 52 58 56 58 66 77 77 83 23 2 6 4 6 19 32 21 0 0 0 0 0 0 0 0 0 0 13 0 0 0 0 2 1 0 6 0 3 15 0 0 0 0 0

GFSGBSN_con_sbcape_051.txt.gz
CAPE
30 33 28 30 30 21 16 19 23 32 18 10 0 0 0 0 2 19 12 6 0 0 0 0 0 0 0 0 0 0 0 0 0 0 0 0 0 0 0 0 0 0 0 0 0 0 0
18 23 27 26 31 24 20 14 18 33 34 31 26 14 6 5 0 12 7 3 0 0 0 0 0 2 1 0 0 0 0 0 0 0 0 0 0 0 0 0 0 0 0 0 0 0 0
22 23 24 38 33 29 22 37 11 11 25 25 24 16 20 17 14 13 0 0 0 0 0 0 0 5 1 0 0 0 0 0 0 0 0 0 0 0 0 0 0 0 0 0 0 0 0
24 28 29 45 49 51 41 46 44 18 22 11 6 42 40 32 23 9 0 0 0 0 0 0 0 3 0 0 0 0 0 0 0 0 0 0 0 0 0 0 0 0 0 0 0 0 0
23 32 26 32 46 44 45 47 46 32 41 34 27 26 29 31 26 1 0 0 0 0 0 0 0 1 0 0 0 0 0 0 0 0 0 0 0 0 0 0 0 0 0 0 0 0 0
37 37 29 32 43 40 46 46 49 46 48 42 39 31 35 25 9 0 0 0 0 0 0 0 7 0 0 0 0 0 0 0 0 0 0 0 0 0 0 0 0 0 0 0 0 0 0
37 40 38 32 39 37 39 39 57 53 52 54 52 50 42 21 4 0 0 0 0 0 0 0 0 0 0 0 0 0 0 0 0 0 0 0 0 0 0 0 0 0 0 0 0 0 0
39 44 41 28 21 27 33 35 56 59 63 51 58 60 42 25 14 0 0 0 0 0 2 0 0 0 0 0 0 0 0 0 0 0 0 0 0 0 0 0 0 0 0 0 0 0 0
30 38 39 24 44 40 38 40 58 56 52 51 49 56 38 21 8 0 0 0 0 0 7 0 0 0 0 0 0 0 0 0 0 0 0 0 0 0 0 0 0 0 0 0 0 0 0
43 45 51 40 31 35 25 28 30 62 68 56 59 46 26 11 0 0 0 0 0 0 0 0 0 0 0 0 0 0 0 0 0 0 0 0 0 0 0 0 0 0 0 0 0 0 0
46 53 42 44 35 38 45 35 47 64 67 62 60 59 41 25 0 0 0 0 0 0 0 0 0 0 0 0 0 0 0 0 0 0 0 0 0 0 0 0 0 0 0 0 0 0 0
38 41 35 47 45 55 49 55 72 67 70 61 71 58 39 9 0 0 0 0 0 30 0 0 0 0 0 0 0 0 0 0 0 0 0 0 0 0 0 0 0 0 0 0 0 0 0
46 44 40 30 51 57 45 72 72 61 75 61 64 71 40 0 0 0 0 0 76 5 0 0 0 0 0 0 0 0 0 0 0 0 0 0 0 0 0 0 0 0 0 0 0 0 0
44 36 28 24 43 64 55 79 88 85 71 57 57 57 13 0 0 0 0 3 44 0 0 0 0 0 0 0 0 0 0 0 0 0 0 0 0 0 0 0 0 0 0 0 0 0 0
43 29 24 50 67 57 67 86 101 90 68 75 63 39 15 0 0 0 1 7 15 0 0 0 0 0 0 0 0 0 0 0 0 0 0 0 0 0 0 0 0 0 0 0 0 0 0
39 24 43 53 71 61 83 100 107 76 88 80 56 64 11 0 0 3 9 4 0 0 0 0 0 0 0 0 0 0 0 0 0 0 0 0 0 0 0 0 0 0 0 0 0 0 0
25 26 34 49 71 65 80 109 77 71 78 90 58 50 9 0 3 8 1 4 0 0 0 0 0 0 0 0 0 0 0 0 0 0 0 0 0 0 0 0 0 0 0 0 0 0 0
46 43 57 64 60 69 88 89 66 66 76 57 50 17 1 0 2 0 0 0 0 0 0 0 0 0 0 0 0 0 0 0 0 0 0 0 0 0 0 0 0 0 0 0 0 0 0
58 63 59 68 61 77 96 87 84 84 83 54 17 7 4 0 1 3 1 1 0 0 0 0 0 0 0 0 0 0 0 0 0 2 0 0 0 0 0 0 0 0 0 0 0 0 0
57 67 64 69 66 87 93 95 111 109 86 46 2 1 14 7 0 1 5 11 1 0 0 0 0 0 0 0 0 0 0 0 0 37 10 0 0 0 0 0 0 0 0 0 0 0 0
48 55 54 64 71 82 88 112 108 107 91 49 3 2 4 1 3 4 6 7 9 3 2 0 0 0 0 0 0 0 0 0 9 95 67 17 0 0 0 0 0 0 0 0 0 0 0
68 57 59 65 84 82 109 109 98 90 81 49 0 15 17 0 14 16 10 5 6 4 1 2 0 0 0 0 0 0 0 0 0 12 26 16 0 0 1 0 0 0 0 0 0 0 0
97 78 78 92 98 114 118 101 82 85 71 23 12 0 25 18 2 2 0 8 2 14 7 0 0 0 0 0 0 0 0 0 0 0 0 17 0 0 0 0 0 0 0 0 0 0 0
118 98 94 110 113 123 110 96 88 85 82 24 29 28 20 10 2 1 3 4 3 8 5 0 0 0 0 0 0 4 7 2 24 62 9 18 0 0 0 0 5 0 0 0 0 0 0
80 82 88 117 108 103 96 88 90 92 87 37 23 39 27 8 13 1 3 0 0 3 6 0 0 0 0 0 0 0 0 3 1 22 44 0 0 0 0 0 0 0 0 0 0 0 0
77 102 103 95 85 97 98 82 81 101 94 49 26 49 22 10 9 11 0 1 0 0 0 0 0 0 0 0 0 1 0 0 0 1 6 0 0 2 1 0 0 0 0 2 0 0 0
60 77 75 72 70 73 70 69 59 58 67 36 22 38 12 8 28 4 0 0 0 0 0 0 0 0 0 0 0 0 0 1 2 0 3 0 0 0 0 1 0 0 0 11 4 0 0
38 48 55 60 59 56 62 62 64 56 56 17 23 0 0 0 0 7 3 0 0 0 0 0 0 0 0 0 0 0 0 0 0 0 0 0 0 1 0 0 0 16 1 0 0 0 0
55 57 57 49 55 57 54 58 63 63 73 44 26 23 9 5 3 0 0 0 0 0 0 0 0 0 0 0 0 0 0 0 0 0 0 14 0 0 0 1 0 42 0 0 0 9 0

GFSGBSN_con_sbcape_057.txt.gz
CAPE
16 18 14 13 17 24 20 22 32 36 21 17 11 6 0 1 1 1 12 0 2 0 0 0 0 0 0 0 0 0 0 0 0 0 0 0 0 0 0 0 0 0 0 0 0 0 0
17 21 23 23 35 34 33 31 28 41 32 29 35 17 7 3 0 0 0 0 1 1 0 0 2 0 0 0 0 0 0 0 0 0 0 0 0 0 0 0 0 0 0 0 0 0 0
23 24 25 26 24 25 25 23 27 28 33 40 43 42 35 16 18 10 9 0 0 0 0 0 6 0 0 0 0 0 0 0 0 0 0 0 0 0 0 0 0 0 0 0 0 0 0
26 30 33 30 38 45 44 40 27 30 28 32 28 40 37 34 35 31 15 0 0 0 1 1 9 0 0 0 0 0 0 0 0 0 0 0 0 0 0 0 0 0 0 0 0 0 0
26 31 36 28 38 41 42 55 48 41 37 41 43 51 46 32 30 29 17 0 0 0 0 6 3 0 0 0 0 0 0 0 0 0 0 0 0 0 0 0 0 0 0 0 0 0 0
29 27 35 33 39 39 29 36 50 54 60 39 38 48 41 28 28 23 2 0 0 0 0 0 0 0 0 0 0 0 0 0 0 0 0 0 0 0 0 0 0 0 0 0 0 0 0
33 38 32 24 23 31 16 28 60 58 45 42 37 24 46 42 41 22 0 0 0 0 0 0 0 0 0 0 0 0 0 0 0 0 0 0 0 0 0 0 0 0 0 0 0 0 0
21 40 27 29 23 31 31 31 41 51 27 37 35 37 51 42 41 16 0 2 7 0 5 0 0 0 0 0 0 0 0 0 0 0 0 0 0 0 0 0 0 0 0 0 0 0 0
34 27 29 41 31 41 22 39 40 31 17 31 36 21 48 39 35 0 0 0 0 0 3 0 0 0 0 0 0 0 0 0 0 0 0 0 0 0 0 0 0 0 0 0 0 0 0
49 36 46 37 20 43 22 20 33 29 21 35 53 50 49 29 0 0 0 0 0 0 11 0 0 0 0 0 0 0 0 0 0 0 0 0 0 0 0 0 0 0 0 0 0 0 0
58 34 48 50 47 39 46 45 37 24 26 30 52 41 55 50 19 0 0 0 0 1 0 0 0 0 0 0 0 0 0 0 0 0 0 0 0 0 0 0 0 0 0 0 0 0 0
50 51 45 45 71 46 57 45 27 29 35 38 53 38 65 0 11 0 0 0 0 14 0 0 0 0 0 0 0 0 0 0 0 0 0 0 0 0 0 0 0 0 0 0 0 0 0
45 52 51 47 63 50 43 35 29 33 40 37 48 51 32 42 25 0 0 0 2 1 0 0 0 0 0 0 0 0 0 0 0 0 0 0 0 0 0 0 0 0 0 0 0 0 0
49 52 57 61 70 46 40 42 48 49 37 28 57 53 0 13 1 1 0 0 1 0 0 0 0 0 0 0 0 0 0 0 0 0 0 0 0 0 0 0 0 0 0 0 0 0 0
51 57 51 65 54 55 60 45 41 45 47 49 56 0 1 0 3 6 2 3 0 0 0 0 0 0 0 0 0 0 0 0 0 0 0 0 0 0 0 0 0 0 0 0 0 0 0
60 55 59 61 75 74 56 48 40 30 20 38 10 5 0 0 1 30 5 9 0 6 0 0 0 0 0 0 0 0 0 0 0 0 0 0 0 0 0 0 0 0 0 0 0 0 0
67 59 58 58 89 60 45 49 33 15 17 64 31 44 0 0 28 53 18 4 1 0 0 0 0 0 0 0 0 0 0 0 0 0 0 0 0 0 0 0 0 0 0 0 0 0 0
70 69 64 64 61 65 60 56 43 22 42 32 62 36 13 23 44 39 39 0 0 0 0 0 0 0 0 0 0 0 0 0 0 0 0 0 0 0 0 0 0 0 0 0 0 0 0
64 52 66 68 66 75 58 47 46 33 38 54 58 37 39 85 29 5 61 10 0 0 0 0 0 0 0 0 0 0 0 0 0 0 7 0 1 0 0 0 0 0 0 0 0 0 0
79 76 64 59 55 62 67 54 43 46 40 53 30 40 14 71 14 3 40 34 0 0 0 0 0 0 0 0 0 0 0 0 0 0 21 10 9 0 0 0 0 0 0 0 0 0 0
73 65 93 57 69 60 61 53 58 67 98 49 20 12 45 5 22 11 26 24 0 0 0 0 0 0 0 0 0 0 0 0 0 0 18 45 14 0 1 0 0 0 0 0 0 0 0
86 87 93 69 90 112 101 95 81 92 130 53 11 79 42 44 23 45 117 31 11 0 0 0 0 0 0 0 0 0 0 0 0 0 0 0 41 11 0 0 0 0 0 0 0 0 0
69 109 118 114 110 61 100 113 121 131 128 47 42 13 87 16 9 58 8 7 1 0 0 0 1 0 0 0 0 0 0 0 0 0 0 0 2 0 0 0 0 0 0 0 0 0 0
102 93 90 109 102 80 125 131 122 123 122 15 61 66 51 13 50 2 12 3 0 1 0 0 1 3 0 0 0 0 0 0 0 0 0 0 1 0 0 0 0 0 0 0 0 0 0
108 72 68 54 120 136 126 114 123 123 103 54 41 85 61 15 12 55 26 12 21 17 1 0 1 1 1 1 8 0 0 0 0 0 0 0 8 6 4 0 0 0 0 0 0 0 0
59 51 71 124 122 116 99 83 81 76 77 68 37 41 66 17 5 0 35 31 15 20 13 3 8 10 5 3 36 8 7 0 1 8 0 0 14 42 2 7 0 0 0 0 0 0 0
53 75 106 116 106 94 93 90 58 98 94 60 50 59 46 34 32 9 41 58 31 12 9 0 1 4 17 35 26 16 20 0 0 0 0 16 12 18 16 19 0 0 0 2 0 0 0
69 68 64 57 56 60 62 77 57 82 82 55 40 24 24 1 27 35 50 55 22 6 0 0 9 4 16 27 19 16 7 4 0 5 0 0 1 7 31 16 1 0 12 0 0 0 0
40 37 36 41 44 46 44 57 49 57 62 57 29 33 14 7 43 19 17 33 19 0 3 2 0 0 0 0 0 0 0 0 0 0 0 28 0 1 0 1 0 2 1 0 0 0 0

GFSGBSN_con_sbcape_060.txt.gz
CAPE
1 8 16 21 28 20 21 26 23 21 19 23 18 14 16 14 3 6 14 9 1 0 0 0 0 0 0 0 0 0 0 0 0 0 0 0 0 0 0 0 0 0 0 0 0 0 0
16 11 17 24 21 9 10 7 11 13 18 25 35 43 30 24 16 10 18 9 2 0 0 0 2 3 0 0 0 0 0 0 0 0 0 0 0 0 0 0 0 0 0 0 0 0 0
15 17 20 29 28 24 26 23 16 16 18 18 46 50 54 34 16 2 3 1 0 0 2 5 4 4 0 0 0 0 0 0 0 0 0 0 0 0 0 0 0 0 0 0 0 0 0
31 18 21 19 35 32 22 19 33 35 34 27 21 37 49 46 30 11 1 0 0 0 6 0 3 5 0 0 0 0 0 0 0 0 0 0 0 0 0 0 0 0 0 0 0 0 0
10 26 23 22 29 30 35 31 32 23 27 31 33 42 43 33 18 1 0 0 0 0 0 0 4 1 0 0 0 0 0 0 0 0 0 0 0 0 0 0 0 0 0 0 0 0 0
33 24 25 27 28 21 29 26 42 41 37 36 37 35 44 46 31 3 0 0 0 0 0 1 3 0 0 0 0 0 0 0 0 0 0 0 0 0 0 0 0 0 0 0 0 0 0
35 29 39 30 25 16 25 31 40 40 29 28 28 28 32 48 26 5 0 0 0 0 0 0 0 0 0 0 0 0 0 0 0 0 0 0 0 0 0 0 0 0 0 0 0 0 0
30 26 42 35 30 35 35 30 35 38 25 23 18 25 21 38 22 5 1 8 4 2 10 0 0 0 0 0 0 0 0 0 0 0 0 0 0 0 0 0 0 0 0 0 0 0 0
36 49 39 15 35 36 23 33 23 28 30 19 21 26 24 39 17 6 8 14 0 1 9 0 0 0 0 0 0 0 0 0 0 1 0 0 0 0 0 0 0 0 0 0 0 0 0
30 44 55 36 48 41 13 30 9 33 28 19 32 34 49 19 10 11 23 7 2 5 12 0 0 0 0 0 0 0 0 0 0 0 0 0 0 0 0 0 0 0 0 0 0 0 0
44 47 52 47 27 55 53 20 20 34 21 16 44 30 58 42 47 26 13 4 0 5 0 0 0 0 0 0 0 0 0 0 0 0 0 0 0 0 0 0 0 0 0 0 0 0 0
51 46 45 49 45 49 75 54 49 24 14 23 29 44 51 39 53 21 3 4 6 6 0 0 0 0 0 0 0 0 0 0 0 0 0 0 0 0 0 0 0 0 0 0 0 0 0
37 47 52 54 56 72 58 40 34 34 19 39 34 40 44 33 43 14 9 8 24 0 0 0 0 0 0 0 0 0 0 0 0 0 0 0 0 0 0 0 0 0 0 0 0 1 0
54 56 52 51 59 67 64 44 51 57 32 36 49 47 42 19 49 42 14 35 3 0 0 0 0 0 0 0 0 0 0 0 0 0 0 0 0 0 0 0 0 0 0 0 0 2 0
61 53 56 62 66 48 58 68 72 68 43 38 51 55 32 28 47 87 35 27 0 0 0 0 0 0 0 0 0 0 0 0 0 0 0 0 0 0 0 0 0 0 0 0 0 0 1
49 49 50 52 58 53 84 87 62 50 35 34 75 65 10 15 94 92 58 4 0 0 0 0 0 0 0 0 0 0 0 0 0 0 0 1 6 0 2 2 0 2 0 0 0 3 15
64 46 43 51 58 56 43 52 51 46 26 38 71 55 2 20 120 54 11 11 4 0 0 0 0 0 0 0 0 0 1 0 0 0 0 0 25 15 2 1 0 0 0 0 8 4 13
49 45 44 51 57 54 64 49 58 54 41 53 72 39 88 105 44 48 23 15 10 9 0 2 0 3 1 0 0 0 0 0 0 0 0 0 0 16 27 0 0 5 13 10 15 10 5
49 47 56 64 64 59 72 87 72 70 54 85 56 25 75 137 36 37 34 25 38 27 10 12 14 2 3 2 0 0 0 0 0 0 9 49 0 0 0 0 0 0 0 0 11 15 21
67 63 65 67 60 77 68 91 70 77 74 117 56 59 69 100 45 48 35 43 41 27 44 30 32 11 11 17 15 3 0 0 0 0 4 37 65 1 10 1 12 8 4 6 0 9 3
57 72 78 85 80 80 78 87 89 87 103 141 67 76 46 60 33 24 26 57 31 38 21 28 18 5 9 15 22 8 0 0 0 0 12 30 5 4 5 0 1 4 3 1 13 8 14
57 65 72 81 80 79 75 66 102 68 110 138 61 52 86 64 40 26 5 8 38 44 27 37 15 22 6 15 27 15 7 0 0 0 0 0 3 1 0 0 0 0 0 0 0 11 15
65 71 79 70 65 67 70 123 120 122 161 89 87 79 59 28 48 56 35 21 21 64 39 43 36 17 35 15 19 19 21 19 4 0 0 0 32 4 0 0 0 0 0 0 26 30 34
56 45 51 58 63 67 93 121 136 162 176 116 67 65 57 12 57 45 31 31 61 40 90 74 14 19 16 16 21 34 36 10 6 1 0 0 18 45 1 0 0 0 0 2 32 17 6
77 43 62 87 126 132 130 123 128 141 190 104 54 173 71 52 23 24 45 49 63 74 85 71 19 15 6 24 42 44 44 44 12 0 2 0 4 56 46 20 0 0 0 0 28 1 0
57 56 59 108 106 105 119 125 142 149 178 68 112 50 99 176 32 16 40 21 70 81 64 55 11 14 20 79 66 31 44 26 24 6 1 3 12 60 55 25 1 0 0 0 0 0 0
48 55 73 82 84 91 95 95 114 137 168 111 10 106 154 35 4 29 38 38 36 82 65 28 37 20 12 92 56 52 39 25 36 46 23 22 46 27 57 45 8 0 0 8 0 20 0
58 59 57 61 62 68 73 100 111 116 122 79 16 42 104 48 8 12 44 43 53 49 45 35 77 43 25 121 58 38 46 39 25 40 12 22 30 47 55 32 14 0 0 2 41 0 0
45 46 53 55 60 49 48 49 55 100 116 83 11 65 77 62 33 37 41 64 38 19 59 34 25 39 42 38 50 31 42 55 16 30 35 55 19 34 18 40 96 61 34 1 0 1 0

GFSGBSN_con_sbcape_063.txt.gz
CAPE
15 3 6 11 7 5 2 15 11 8 10 10 9 11 14 12 5 4 7 4 1 0 0 1 2 4 0 0 0 0 0 0 0 0 0 0 0 0 0 0 0 0 0 0 0 0 0
5 9 20 20 16 18 7 13 13 22 15 10 25 29 24 9 1 0 3 2 1 0 2 2 5 6 0 0 0 0 0 0 0 0 0 0 0 0 0 0 0 0 0 0 0 0 0
15 14 10 26 28 27 33 24 26 28 29 28 15 16 17 2 1 1 1 1 0 0 1 1 7 2 0 0 0 0 0 0 0 0 0 0 0 0 0 0 0 0 0 0 0 0 0
14 11 13 16 21 50 29 35 30 16 20 24 18 16 25 16 16 1 1 0 0 0 1 0 1 1 0 0 0 0 0 0 0 0 0 0 0 0 0 0 0 0 0 0 0 0 0
33 25 19 29 34 32 26 33 21 20 38 36 22 28 36 18 21 0 0 0 0 0 0 0 0 1 0 0 0 0 0 0 0 0 0 0 0 0 0 0 0 0 0 0 0 0 0
19 35 35 36 26 25 16 25 44 38 16 25 30 27 37 22 20 0 0 0 0 0 0 0 0 1 0 0 0 0 0 0 0 0 0 0 0 0 0 0 0 0 0 0 0 0 0
44 32 28 23 44 15 27 22 43 51 24 21 19 25 21 19 0 0 0 0 0 0 0 0 0 0 0 0 0 0 0 0 0 0 0 0 0 0 0 0 0 0 11 10 0 0 0
30 35 44 22 29 25 23 36 40 25 4 21 27 28 24 4 0 0 2 3 2 3 2 0 0 0 0 0 0 0 0 0 3 1 0 0 0 0 0 0 0 0 0 0 0 0 0
35 30 22 40 40 8 33 35 35 27 22 30 24 34 30 15 0 5 18 20 14 8 5 0 0 0 0 0 0 0 0 2 19 10 16 0 0 0 0 0 0 0 0 0 0 0 0
41 35 25 42 51 34 28 43 29 20 29 38 29 34 49 3 2 13 11 12 24 16 6 0 0 0 0 0 0 0 0 8 12 17 18 12 0 0 2 1 1 1 0 0 0 0 0
47 45 48 35 22 43 55 39 42 14 36 30 45 42 52 11 16 15 10 20 24 10 1 0 0 0 0 0 0 0 0 0 3 2 0 6 1 0 1 2 1 0 0 1 0 0 0
46 52 34 38 42 42 55 62 63 24 31 30 25 41 21 11 45 30 18 20 32 26 1 0 0 0 0 0 0 0 0 0 0 0 0 0 0 2 1 0 0 0 1 1 1 0 7
45 47 39 37 44 54 46 70 64 20 38 27 35 43 9 19 20 28 17 19 40 0 0 0 0 0 0 0 0 0 0 0 0 0 0 0 0 0 1 0 0 1 8 11 10 2 0
42 57 57 51 46 40 65 46 47 50 44 23 46 37 15 28 15 58 75 48 12 0 0 0 0 0 0 0 2 0 0 0 0 1 3 4 0 0 3 5 0 2 3 3 7 11 2
49 49 54 57 56 55 55 55 49 54 64 51 44 24 29 46 50 37 83 40 0 0 0 0 0 0 0 0 0 0 0 2 0 0 0 3 0 0 0 6 0 3 8 0 1 21 18
39 45 46 46 51 48 49 48 49 40 47 38 47 60 43 52 63 80 66 7 0 0 0 0 0 0 0 2 1 7 17 0 0 0 0 1 5 0 3 4 3 0 1 5 16 12 17
37 38 41 52 43 50 54 40 38 49 50 34 54 40 40 48 88 78 67 14 0 0 0 0 0 0 0 0 0 1 15 1 0 0 0 0 19 0 13 18 18 4 10 23 12 11 15
46 41 39 39 41 52 50 43 46 56 29 19 65 62 70 77 105 70 45 12 0 1 0 0 0 1 4 6 2 1 1 0 0 0 88 0 2 6 1 3 28 18 4 26 33 10 35
37 37 41 48 42 44 54 60 59 69 26 93 56 61 113 169 70 79 40 22 8 9 1 0 1 5 8 13 4 0 0 0 0 0 2 30 2 5 5 4 8 31 33 24 29 41 20
50 60 60 62 69 62 59 59 61 73 78 143 91 103 58 129 71 44 31 41 27 12 9 9 10 9 16 19 27 19 13 2 0 0 12 2 69 15 0 14 6 15 23 8 7 21 50
53 56 40 53 66 75 55 61 102 108 84 163 114 65 42 65 80 56 50 51 30 25 26 22 29 31 32 35 28 38 29 14 2 0 0 0 46 67 53 78 67 23 19 11 17 8 9
57 59 63 67 85 91 76 43 78 78 92 69 102 61 65 76 72 53 64 43 44 55 45 39 56 54 48 46 51 66 54 43 16 4 6 9 4 20 25 34 55 83 82 96 69 61 45
44 65 66 61 78 86 76 61 83 95 75 41 70 62 128 34 56 84 73 35 29 61 53 67 55 72 68 72 63 63 59 43 32 26 22 22 6 13 10 0 0 1 3 18 13 47 62
40 39 32 44 59 70 72 87 159 182 162 58 53 63 108 66 42 58 41 55 53 51 55 45 81 78 97 119 83 77 36 17 24 11 16 13 22 7 15 4 4 2 0 27 52 119 99
70 37 40 47 76 104 103 106 105 146 118 409 126 129 79 67 46 50 51 58 63 65 70 70 95 125 141 71 43 50 66 51 29 16 19 14 17 45 16 15 0 0 0 32 139 116 32
67 37 43 44 30 91 105 112 125 145 142 361 428 186 164 74 65 40 47 28 54 103 61 71 128 153 27 30 259 63 105 56 56 24 4 24 8 69 48 7 8 4 18 2 77 110 5
69 90 102 47 72 64 76 108 119 130 157 222 60 298 157 100 31 53 87 58 70 76 138 159 25 12 4 117 201 130 116 83 96 43 21 49 46 23 29 28 11 27 12 0 20 92 24
70 80 63 59 45 53 71 76 86 120 154 138 49 39 78 103 12 21 57 106 104 111 138 101 107 82 48 143 55 117 128 111 110 88 31 25 42 45 54 27 18 54 6 45 91 46 1
57 56 45 46 54 44 52 58 77 98 126 164 57 7 25 28 41 49 10 11 41 31 16 7 27 56 83 91 92 98 169 121 131 158 116 35 24 62 20 37 170 187 153 76 41 10 0

GFSGBSN_con_sbcape_066.txt.gz
CAPE
0 10 13 1 0 4 3 1 7 14 9 15 21 40 29 22 21 13 4 1 0 0 0 0 2 4 0 0 0 0 0 0 0 0 0 0 0 0 0 0 0 0 0 0 0 0 0
12 16 4 7 12 4 4 11 7 16 11 13 25 26 26 28 11 2 2 1 0 0 0 0 1 8 1 0 0 0 0 0 0 0 0 0 0 0 0 0 0 0 0 0 0 0 0
13 10 17 10 6 11 17 8 10 17 13 17 17 15 25 28 13 0 0 0 0 0 0 0 2 9 0 0 0 0 0 0 0 0 0 0 0 0 0 0 0 0 0 0 0 0 0
29 27 6 9 24 20 24 14 10 7 9 28 40 25 31 21 13 0 0 0 0 0 0 0 1 8 1 0 0 0 0 0 0 0 0 0 0 0 0 0 0 0 0 0 0 0 0
29 23 24 17 20 23 19 17 14 7 18 8 30 30 35 33 21 0 0 0 0 0 0 0 2 2 0 0 0 0 0 0 0 0 0 0 0 0 0 0 0 0 0 0 0 0 0
26 33 23 29 26 31 20 18 34 35 30 25 17 7 13 23 2 0 0 0 0 0 0 0 4 1 0 0 0 0 0 0 0 0 0 0 0 0 0 0 0 0 0 0 0 0 0
20 26 43 42 21 18 31 15 39 50 20 10 12 15 14 23 0 0 0 0 0 0 0 0 0 0 0 0 0 0 0 0 0 0 0 0 0 0 0 0 0 0 0 0 0 0 0
28 20 22 31 35 42 29 8 49 43 26 10 21 18 16 23 0 0 0 7 3 3 0 0 0 0 0 0 0 0 0 0 0 0 1 0 1 0 0 0 0 0 0 0 0 0 0
30 27 32 29 11 28 39 28 36 45 21 17 23 26 14 15 0 0 10 0 14 5 4 0 0 0 0 0 0 0 0 0 8 10 13 17 0 0 0 1 5 0 0 0 0 0 0
46 40 35 39 27 27 37 37 14 27 26 32 31 24 41 4 0 9 1 10 24 25 8 0 0 0 0 0 0 0 0 0 8 1 31 25 14 7 0 7 0 0 0 0 0 4 1
45 51 51 47 40 29 15 46 32 26 29 24 32 20 35 1 0 0 1 18 16 24 1 0 0 0 0 0 0 0 0 0 2 1 23 33 15 0 1 0 5 0 5 0 0 2 1
20 22 43 43 36 39 44 39 50 29 31 24 28 20 28 0 7 4 20 15 36 14 0 0 0 0 0 0 0 0 0 0 0 19 3 0 0 3 0 0 1 0 0 0 12 11 1
12 13 21 38 45 42 47 52 46 46 40 27 24 27 19 6 1 6 14 21 33 2 0 0 0 0 0 0 0 0 0 0 0 0 0 0 0 0 0 0 0 0 1 1 7 13 5
20 13 29 41 49 54 56 53 74 49 41 41 48 54 5 12 5 25 35 39 15 0 0 0 0 0 0 0 1 2 0 0 0 0 0 1 5 0 0 0 0 1 0 3 18 39 0
9 25 36 41 36 44 56 56 63 49 47 37 45 18 22 11 52 62 25 41 0 0 0 0 0 0 0 0 0 10 28 21 1 0 0 1 0 1 0 0 0 0 0 0 0 0 0
20 10 26 28 36 40 32 45 56 50 43 40 50 39 12 49 117 75 38 15 0 0 0 0 0 0 0 1 0 13 31 1 7 0 0 0 0 0 0 1 0 2 0 1 3 0 5
22 27 36 38 29 34 34 34 46 53 33 40 35 31 0 77 95 83 26 23 0 0 0 0 0 0 0 0 0 0 59 14 0 0 0 0 1 0 1 2 2 8 2 4 2 0 3
13 32 41 36 34 31 31 36 39 41 63 36 55 48 29 176 116 43 26 30 5 3 5 0 0 0 0 0 3 5 6 8 0 0 0 4 6 0 0 0 0 4 0 4 6 0 0
41 46 41 41 31 30 38 30 28 46 61 61 101 23 37 228 64 76 39 24 28 18 6 3 1 0 0 2 0 2 2 1 0 0 0 0 0 0 0 0 1 7 1 0 6 3 2
46 53 52 51 51 58 62 52 53 56 76 86 63 78 20 234 105 68 35 54 31 14 2 4 4 2 1 2 1 1 11 12 0 0 0 0 3 6 2 0 3 27 10 0 17 10 6
58 53 49 39 34 49 53 60 62 79 90 118 75 56 62 107 126 35 45 47 34 18 23 6 5 6 9 10 11 15 14 6 0 9 0 2 16 13 0 7 22 2 0 11 3 2 0
51 43 48 53 52 49 52 65 72 66 102 76 74 129 47 16 30 69 36 23 13 39 42 33 17 12 17 13 14 14 15 20 32 47 1 0 28 0 0 30 20 15 0 6 23 28 7
51 52 46 41 27 33 63 81 104 94 110 62 38 32 232 50 60 59 86 33 29 39 9 51 25 49 32 41 41 35 30 27 8 27 29 10 4 8 4 2 0 5 5 14 11 0 12
52 42 43 42 40 22 44 80 114 104 115 187 67 127 146 55 28 26 49 17 49 24 20 7 65 8 80 45 69 48 24 14 13 7 13 16 3 2 20 6 2 3 6 15 16 1 6
41 39 46 45 64 47 71 82 93 122 90 317 221 31 143 89 19 19 18 25 44 70 29 36 52 46 89 83 49 9 37 13 1 1 4 19 36 32 74 36 0 0 0 0 74 64 0
46 40 36 76 59 44 31 67 78 72 69 257 314 326 142 164 25 21 32 0 50 66 62 55 47 113 124 34 4 2 20 39 18 7 0 13 68 54 42 29 2 7 1 0 2 14 0
58 55 56 64 78 53 30 35 72 94 54 153 47 276 154 219 5 47 55 47 20 32 63 92 84 24 20 19 2 12 26 19 67 36 33 25 54 42 59 29 11 0 0 1 67 41 1
59 54 48 58 67 61 46 49 57 85 119 145 37 205 99 36 6 28 32 29 12 107 82 83 104 29 4 3 82 61 93 78 46 33 39 7 48 49 37 52 44 29 7 38 73 7 2
43 37 45 46 47 50 52 46 64 69 111 151 80 181 237 75 10 28 43 40 20 27 56 67 43 26 11 41 63 107 142 275 85 49 20 36 29 67 9 2 195 210 203 83 37 0 2

GFSGBSN_con_sbcape_069.txt.gz
CAPE
8 4 6 10 12 10 6 12 20 26 21 11 9 15 23 10 4 5 5 0 0 0 0 2 3 6 0 0 0 0 0 0 0 0 0 0 0 0 0 0 0 0 0 0 0 0 0
1 1 15 17 7 7 8 14 10 29 17 17 31 31 20 19 16 5 4 0 0 0 0 1 3 6 0 0 0 0 0 0 0 0 0 0 0 0 0 0 0 0 0 0 0 0 0
11 20 10 9 7 12 7 17 17 11 14 15 17 27 24 9 2 0 0 0 0 0 0 0 6 3 1 0 0 0 0 0 0 0 0 0 0 0 0 0 0 0 0 0 0 0 0
13 17 20 19 24 31 31 14 13 8 20 23 15 20 25 9 4 3 0 0 0 0 0 0 2 2 1 0 0 0 0 0 0 0 0 0 0 0 0 0 0 0 0 0 0 0 0
18 25 24 17 38 39 42 19 21 12 7 25 24 25 31 19 6 0 0 0 0 0 0 0 0 0 0 0 0 0 0 0 0 0 0 0 0 0 0 0 0 0 0 0 0 0 0
15 16 24 35 37 22 18 35 43 54 31 22 13 25 33 18 0 0 0 0 0 0 0 0 0 2 0 0 0 0 0 0 0 0 0 0 0 0 0 0 0 0 0 0 0 0 0
21 22 18 13 18 27 33 28 36 42 42 17 3 6 14 22 0 0 0 0 0 0 0 0 0 0 0 0 0 0 0 0 0 0 0 0 0 0 0 0 0 0 0 0 0 0 0
16 22 20 15 18 12 12 42 42 53 29 16 7 9 7 7 0 0 0 0 6 0 0 0 0 0 0 0 0 0 0 0 0 0 0 0 0 0 0 0 0 0 0 0 0 0 0
29 34 31 22 29 18 24 25 43 42 49 35 28 15 7 5 0 0 0 0 9 0 0 0 0 0 0 0 0 0 0 0 0 0 0 5 0 0 0 0 0 0 0 0 0 0 0
34 28 33 47 38 45 35 20 25 35 32 60 37 29 21 8 0 0 0 3 17 2 1 0 0 0 0 0 0 0 0 0 0 0 4 0 2 6 0 0 0 0 0 0 0 0 0
43 32 32 45 49 40 36 32 22 41 33 49 46 26 19 11 0 0 0 1 11 5 0 0 0 0 0 0 0 0 0 0 0 0 0 0 24 10 18 0 0 0 12 0 0 0 0
38 21 8 15 32 48 45 43 39 44 51 36 60 43 22 0 0 0 0 0 7 17 0 0 0 0 0 0 0 0 0 0 0 6 0 0 0 1 0 0 6 0 1 0 0 0 0
24 26 9 8 18 33 47 49 60 55 39 43 67 40 3 0 0 0 0 5 5 1 0 0 0 0 0 0 0 0 0 0 0 0 0 0 0 0 0 0 1 0 2 9 0 0 0
27 21 12 16 34 36 44 54 74 81 43 35 63 59 0 0 0 0 1 39 6 0 0 8 0 0 0 0 0 0 0 0 0 0 0 0 0 0 0 0 0 0 1 0 12 8 2
31 27 10 8 24 28 35 41 38 45 59 46 70 0 0 0 0 0 32 15 0 0 0 0 0 0 0 0 0 0 0 0 0 0 0 0 0 0 0 0 1 1 1 0 1 0 0
27 18 18 15 19 21 26 31 30 44 37 55 3 0 0 0 1 13 37 4 0 0 0 0 0 0 0 2 0 0 28 13 0 0 0 0 0 0 0 1 2 1 2 2 6 13 0
31 23 12 25 31 31 30 28 31 28 36 44 0 15 0 0 20 36 6 2 0 0 0 0 0 0 0 0 0 0 97 22 0 0 0 0 0 0 0 0 2 5 4 9 7 0 0
5 8 2 22 34 33 39 33 29 39 40 13 17 23 0 82 18 16 0 0 0 0 0 0 0 0 0 0 0 0 0 33 0 0 0 0 0 0 0 1 0 5 0 0 17 12 0
12 29 40 46 44 46 43 35 42 36 43 20 41 12 0 2 16 3 6 0 0 0 0 0 1 1 0 0 0 0 0 1 0 0 0 0 0 0 0 0 4 0 0 4 4 7 8
39 39 51 51 45 47 47 56 53 55 66 29 29 23 0 6 0 24 17 0 10 0 0 0 0 0 0 0 0 0 0 8 0 0 0 0 0 0 2 8 18 0 9 13 11 12 8
46 47 48 48 52 56 45 48 60 85 81 15 37 0 9 10 1 17 23 30 42 16 8 2 0 0 0 0 6 2 8 0 3 34 1 1 0 0 1 0 0 20 0 2 2 1 40
45 51 55 45 51 55 53 57 64 64 104 21 30 11 12 9 14 4 0 0 0 0 1 26 27 1 0 0 0 2 25 28 16 29 21 9 1 2 0 1 1 3 9 1 14 15 31
48 55 58 60 46 51 57 44 57 76 71 5 2 16 24 4 18 20 16 6 0 2 16 0 14 15 33 45 25 19 16 5 3 4 12 23 2 0 0 0 0 0 0 0 13 7 2
55 55 57 58 60 57 47 52 74 70 50 0 1 35 16 0 6 19 2 2 38 6 25 23 3 17 62 14 2 12 6 2 0 0 3 13 12 6 0 0 0 0 0 8 0 16 1
39 45 58 52 46 55 68 64 78 86 73 20 10 30 48 7 0 0 11 2 14 0 1 8 22 37 38 80 10 0 0 0 0 0 0 0 12 3 1 4 0 0 0 0 3 0 0
54 49 35 45 69 72 64 46 34 57 66 22 11 17 57 8 0 23 3 0 0 1 1 12 53 35 35 3 0 0 0 0 0 0 0 0 0 2 22 0 22 0 0 0 11 0 0
31 35 42 43 67 65 69 64 46 17 56 17 11 11 8 93 0 0 0 0 22 3 1 0 13 9 0 1 0 0 0 0 0 34 13 0 0 10 3 25 0 0 0 0 0 3 2
67 73 70 55 63 61 67 67 40 20 33 24 5 15 4 11 4 0 0 0 0 7 33 14 27 15 0 0 0 0 0 3 2 0 36 1 1 6 23 14 0 8 5 16 0 0 0
79 77 61 56 49 52 59 63 59 22 54 56 10 3 17 43 7 0 0 0 0 0 15 14 27 3 14 0 0 1 12 14 9 10 41 4 0 1 0 0 23 65 32 9 0 0 0

GFSGBSN_con_sbcape_072.txt.gz
CAPE
2 2 10 9 1 5 12 16 17 19 14 12 8 17 18 14 5 5 10 5 2 0 0 0 0 13 2 0 0 0 0 0 0 0 0 0 0 0 0 0 0 0 0 0 0 0 0
7 4 6 0 11 3 5 7 23 17 7 6 12 10 19 7 4 1 2 1 2 0 0 0 2 5 5 0 0 0 0 0 0 0 0 0 0 0 0 0 0 0 0 0 0 0 0
8 14 17 14 5 5 11 13 18 17 14 3 16 16 20 1 0 0 0 0 0 0 0 0 1 2 0 0 0 0 0 0 0 0 0 0 0 0 0 0 0 0 0 0 0 0 0
16 20 18 19 30 42 29 22 21 13 22 12 22 10 12 8 0 0 0 0 0 0 0 0 0 3 0 0 0 0 0 0 0 0 0 0 0 0 0 0 0 0 0 0 0 0 0
10 4 6 24 30 32 24 28 23 16 18 22 11 6 13 11 0 0 0 0 0 0 0 0 3 2 0 0 0 0 0 0 0 0 0 0 0 0 0 0 0 0 0 0 0 0 0
14 15 11 12 17 21 27 28 40 39 28 8 8 0 8 8 0 0 0 0 0 0 0 0 1 3 0 0 0 0 0 0 0 0 0 0 0 0 0 0 0 0 0 0 0 0 0
11 15 13 17 10 9 15 9 38 46 32 6 7 0 1 6 0 0 0 0 0 0 0 0 0 0 0 0 0 0 0 0 0 0 0 0 0 0 0 0 0 0 0 0 0 0 0
19 24 19 19 17 17 19 18 25 47 15 23 18 6 5 0 0 0 0 0 1 1 0 0 0 0 0 0 0 0 0 0 0 0 0 0 0 0 0 0 0 0 0 0 0 0 0
9 6 11 24 34 30 34 29 22 23 35 22 24 10 11 0 0 0 0 0 0 0 0 0 0 0 0 0 0 0 0 0 0 0 0 0 0 0 0 0 0 0 0 0 0 0 0
20 26 22 24 34 41 41 37 25 20 35 39 50 38 35 8 0 0 0 0 0 0 1 0 0 0 0 0 0 0 0 0 0 0 0 1 0 0 0 0 0 0 0 2 0 0 0
29 16 2 6 13 31 43 44 41 25 33 48 54 55 36 11 0 0 0 0 0 0 0 0 0 0 0 0 0 0 0 0 0 0 0 0 0 0 3 0 0 0 0 0 0 0 0
13 16 22 6 5 6 20 37 38 48 55 50 46 57 37 0 0 0 0 0 0 0 0 0 0 0 0 0 0 0 0 0 0 0 0 0 0 0 0 0 5 0 16 17 1 0 0
18 19 18 9 10 7 21 42 42 51 58 40 38 49 19 1 0 0 0 0 0 1 0 0 0 0 0 0 0 0 0 0 0 0 0 0 0 0 0 0 4 9 33 35 27 6 0
19 28 18 3 13 26 32 31 30 32 31 30 43 63 5 0 0 0 0 4 3 0 0 0 0 0 0 0 0 0 0 0 0 0 0 0 0 0 0 0 2 6 14 30 10 14 4
5 21 35 22 14 10 23 23 24 19 22 33 39 0 0 0 0 0 2 0 0 0 0 0 0 0 0 0 0 0 0 0 0 0 0 0 0 0 0 0 0 1 13 0 2 1 0
14 38 26 16 24 29 31 27 30 24 20 34 0 0 0 0 0 5 27 0 0 0 0 0 0 0 0 0 0 0 0 0 0 0 0 0 0 0 0 0 1 11 2 1 14 2 19
27 7 32 22 9 25 37 32 19 13 23 27 0 0 0 0 0 36 5 0 0 0 0 0 0 0 0 0 0 0 71 17 0 0 0 0 0 0 0 0 0 16 30 22 5 5 36
18 6 10 17 20 31 30 24 20 22 35 1 0 1 0 5 5 29 7 0 0 0 0 0 0 0 0 0 0 0 13 27 0 0 0 0 0 0 0 1 0 0 3 12 77 4 0
14 10 26 29 25 32 38 44 42 29 38 0 31 10 0 0 5 0 0 3 8 0 0 0 2 0 0 0 0 0 16 0 0 0 0 0 0 0 0 0 5 6 3 3 5 7 24
23 39 34 30 41 43 44 41 41 61 61 3 16 3 0 0 0 0 11 23 19 6 1 0 0 0 0 0 0 0 0 28 0 0 0 0 0 1 1 4 1 55 4 6 17 9 0
29 32 34 37 35 39 51 50 31 45 44 8 36 0 0 0 14 6 0 4 10 3 20 20 0 1 0 0 0 0 1 0 13 39 12 1 0 4 0 0 0 7 2 6 29 3 15
36 39 36 40 40 35 41 53 56 49 53 17 1 0 0 0 2 6 0 0 0 5 120 24 17 42 40 3 0 0 0 3 14 15 17 5 0 0 0 0 0 0 0 23 0 12 9
32 39 44 47 52 57 41 53 55 56 44 12 11 0 0 0 0 0 12 20 1 1 11 1 1 3 0 30 0 0 2 0 2 0 13 17 1 0 0 0 0 0 5 27 0 4 4
41 53 48 43 45 51 62 61 64 44 41 4 0 0 1 0 0 0 0 3 2 5 41 9 5 3 27 53 3 1 0 0 0 0 0 4 11 10 0 3 0 0 0 0 3 6 8
50 39 33 36 41 50 56 54 47 52 55 0 0 29 35 4 0 0 8 2 11 0 10 4 21 22 38 6 0 0 0 0 0 0 0 0 0 1 5 4 0 0 0 0 22 6 6
48 50 57 52 41 66 58 43 46 40 40 22 1 0 81 6 0 0 0 3 9 10 1 8 11 0 11 0 0 0 0 0 0 1 0 0 0 0 2 8 2 2 0 4 2 9 2
33 21 21 23 54 63 55 36 28 47 41 23 0 0 31 29 1 4 2 8 25 15 8 12 0 7 0 1 0 0 0 0 0 2 5 0 0 0 0 15 0 0 17 2 3 5 3
31 29 33 45 54 57 41 36 41 52 63 19 0 0 5 11 0 0 0 0 0 2 1 1 1 12 0 0 0 0 0 0 0 0 2 0 0 0 0 15 3 0 34 7 14 0 0
27 43 80 85 79 59 36 34 41 44 41 28 2 0 0 30 0 0 0 0 0 0 0 0 17 6 28 3 0 0 2 0 0 0 38 0 0 0 0 0 20 2 19 3 0 0 0

GFSGBSN_con_sbcape_075.txt.gz
CAPE
0 0 0 5 5 0 0 3 3 11 5 2 0 3 11 12 7 3 4 4 1 1 0 0 1 4 3 0 0 0 0 0 0 0 0 0 0 0 0 0 0 0 0 0 0 0 0
5 2 10 11 0 2 5 7 10 7 7 0 0 15 14 10 1 0 3 2 2 0 0 0 2 6 2 0 0 0 0 0 0 0 0 0 0 0 0 0 0 0 0 0 0 0 0
17 7 14 17 16 6 7 14 16 11 7 14 13 17 5 0 0 0 0 3 1 0 0 0 5 5 3 0 0 0 0 0 0 0 0 0 0 0 0 0 0 0 0 0 0 0 0
19 19 20 23 24 17 20 15 27 17 13 15 13 5 14 1 0 0 1 0 0 0 0 1 4 1 0 0 0 0 0 0 0 0 0 0 0 0 0 0 0 0 0 0 0 0 0
12 12 4 5 4 22 32 25 21 28 18 11 1 4 5 0 0 0 0 0 0 0 0 0 1 1 0 0 0 0 0 0 0 0 0 0 0 0 0 0 0 0 0 0 0 0 0
12 5 4 4 2 0 11 14 31 34 13 9 3 0 0 0 0 0 0 0 0 0 0 0 2 1 0 0 0 0 0 0 0 0 0 0 0 0 0 0 0 0 0 0 0 0 0
19 15 17 12 11 10 13 14 11 17 18 14 10 3 4 6 0 0 0 0 0 0 0 0 0 0 0 0 0 0 0 0 0 0 0 0 0 0 0 0 0 0 0 0 0 0 0
16 20 27 32 24 18 20 17 12 9 22 27 13 9 5 0 0 0 0 0 0 0 0 0 0 0 0 0 0 0 0 0 0 0 0 0 0 0 0 0 0 0 0 0 0 0 0
8 9 14 16 17 23 36 27 26 17 17 25 25 14 7 0 0 0 0 0 0 0 0 0 0 0 0 0 0 0 0 0 0 0 0 0 0 0 0 0 0 0 0 0 0 0 0
10 21 12 3 12 20 24 29 29 29 19 14 23 33 48 3 0 0 0 0 0 0 0 0 0 0 0 0 0 0 0 0 0 0 0 0 0 0 0 0 0 0 0 0 0 0 0
0 20 8 0 1 0 1 9 20 22 27 38 39 24 60 3 0 0 0 0 0 0 0 0 0 0 0 0 0 0 0 0 0 0 0 0 0 0 0 0 0 0 0 6 14 2 0
0 6 8 2 0 0 0 0 10 23 21 42 32 26 38 0 0 0 0 0 0 0 0 0 0 0 0 0 0 0 0 0 0 0 0 0 0 0 0 0 0 1 9 3 0 8 4
1 19 10 2 0 2 15 21 18 27 27 19 25 12 3 0 0 0 0 0 0 1 0 0 0 0 0 0 0 0 0 0 0 0 0 0 0 0 0 0 0 11 20 12 8 13 2
4 10 16 0 0 0 1 7 13 18 12 19 13 0 0 0 0 0 0 0 1 0 0 0 0 0 0 0 0 0 0 0 0 0 0 0 0 0 0 0 0 3 0 3 1 2 0
0 0 8 9 4 2 1 11 21 24 19 29 0 0 0 0 0 0 0 0 0 0 0 0 0 0 0 0 0 0 0 0 0 0 0 0 0 0 0 0 0 22 3 0 25 4 0
6 13 12 19 4 6 11 24 21 17 21 26 0 0 0 0 0 12 3 0 0 0 0 0 0 0 0 0 0 0 0 0 0 0 0 0 0 0 0 0 0 3 6 10 35 2 1
19 14 1 7 5 1 17 25 25 22 26 22 0 0 0 0 0 29 4 0 0 0 0 0 0 0 4 0 0 0 1 0 0 0 0 0 0 0 0 0 0 16 30 18 7 4 59
21 12 8 0 9 22 23 23 21 23 29 0 0 0 0 0 11 4 5 4 0 0 0 0 0 0 20 0 0 0 0 0 0 0 0 0 0 0 0 0 1 26 5 11 30 3 0
25 8 1 13 26 24 27 28 35 35 20 0 0 0 0 2 0 0 0 0 6 0 2 3 2 0 11 2 3 0 0 1 0 0 0 0 0 0 0 0 3 14 11 4 8 3 29
14 14 23 24 23 29 34 32 27 23 36 0 1 0 0 0 0 2 2 0 2 13 0 1 2 0 0 0 0 2 0 0 1 0 1 0 0 0 0 4 10 1 12 25 34 26 9
21 17 34 33 36 26 21 22 33 29 33 0 37 0 0 0 19 11 21 25 0 0 0 3 0 8 7 0 0 0 15 17 23 2 1 0 0 0 0 0 0 0 0 4 8 7 62
8 9 39 26 38 27 19 19 37 44 45 41 13 0 0 0 0 0 0 0 0 6 8 1 16 1 1 12 2 0 17 13 19 6 6 1 0 0 0 0 0 0 0 0 0 11 6
44 24 29 34 35 31 37 29 33 48 20 1 16 7 0 0 0 0 0 5 0 2 0 19 23 19 1 0 3 1 0 1 1 0 0 1 1 0 0 0 0 0 0 0 0 0 2
22 20 25 41 44 33 32 51 64 71 14 0 0 0 0 0 0 0 0 0 0 0 0 0 12 14 0 0 11 0 0 0 0 0 0 0 0 0 0 0 0 0 0 7 2 6 2
34 40 47 38 25 25 43 52 60 53 51 7 1 33 0 0 0 0 0 2 0 0 0 2 2 17 43 4 5 9 0 0 0 0 0 0 0 0 0 1 0 0 4 7 17 18 5
54 44 42 45 38 66 52 51 28 56 27 6 0 1 42 1 0 0 0 0 0 1 5 2 8 0 16 1 0 0 0 0 0 0 0 0 0 0 0 4 0 0 0 0 0 6 0
46 49 43 22 18 60 69 49 42 46 46 28 12 1 39 47 0 4 4 0 1 15 13 16 2 16 0 0 0 0 0 0 0 4 18 0 0 0 0 3 0 0 0 0 0 12 1
40 29 23 23 27 57 49 49 46 37 32 39 1 12 2 0 0 0 0 0 0 0 27 14 3 0 0 0 0 0 0 0 0 0 1 2 0 0 0 2 0 0 5 4 0 0 0
27 29 28 46 55 62 48 43 39 33 36 19 9 11 3 0 0 0 0 0 0 0 0 2 6 43 7 7 0 1 0 0 0 0 19 1 0 2 0 0 0 0 0 0 0 0 2

GFSGBSN_con_sbcape_078.txt.gz
CAPE
0 0 0 2 12 3 5 6 1 4 3 0 0 2 10 3 1 0 1 4 0 0 0 2 0 4 1 0 0 0 0 0 0 0 0 0 0 0 0 0 0 0 0 0 0 0 0
0 0 5 18 14 13 10 8 12 12 6 3 13 14 9 1 0 0 0 0 2 0 0 0 3 2 0 0 0 0 0 0 0 0 0 0 0 0 0 0 0 0 0 0 0 0 0
15 5 6 10 15 16 13 18 10 21 12 15 6 5 6 1 0 0 0 0 0 0 0 1 4 0 4 0 0 0 0 0 0 0 0 0 0 0 0 0 0 0 0 0 0 0 0
19 18 13 11 19 30 32 24 9 16 23 6 0 3 11 1 0 0 0 0 0 0 0 1 2 1 0 0 0 0 0 0 0 0 0 0 0 0 0 0 0 0 0 0 0 0 0
1 6 4 1 0 0 11 22 20 30 24 14 14 10 14 16 6 0 0 0 0 0 0 1 0 0 0 0 0 0 0 0 0 0 0 0 0 0 0 0 0 0 0 0 0 0 0
9 4 1 3 1 0 0 13 13 23 25 21 22 4 5 11 0 0 0 0 0 0 0 0 1 1 0 0 0 0 0 0 0 0 0 0 0 0 0 0 0 0 0 0 0 0 0
12 10 6 3 5 10 11 21 15 18 20 23 13 6 0 0 0 0 0 0 0 0 0 0 0 0 0 0 0 0 0 0 0 0 0 0 0 0 0 0 0 0 0 0 0 0 0
6 6 8 17 20 22 28 31 25 17 17 15 6 4 0 0 0 0 0 0 0 0 1 0 0 0 0 0 0 0 0 0 0 0 0 0 0 0 0 0 0 0 0 0 0 0 0
4 7 14 16 17 18 23 33 24 20 19 9 10 11 3 0 0 0 0 0 0 0 0 0 0 0 0 0 0 0 0 0 0 0 0 0 0 0 0 0 0 0 0 0 0 0 0
11 22 18 10 8 4 2 10 19 19 19 17 28 9 16 9 0 0 0 0 0 0 0 0 0 0 0 0 0 0 0 0 0 0 0 0 0 0 0 0 0 0 0 0 0 10 0
3 21 12 2 0 0 0 0 0 16 16 27 18 3 10 0 0 0 0 0 0 0 0 0 0 0 0 0 0 0 0 0 0 0 0 0 0 0 0 0 0 0 0 0 0 0 2
1 6 6 7 0 0 7 15 14 22 22 5 1 1 0 0 0 0 0 0 0 0 0 0 0 0 0 0 0 0 0 0 0 0 0 0 0 0 0 0 0 0 4 4 0 1 6
0 11 16 9 0 0 0 7 10 10 2 0 0 0 0 0 0 0 0 0 0 0 0 0 0 0 0 0 0 0 0 0 0 0 0 0 0 0 0 0 0 0 19 0 4 12 1
13 6 19 8 0 1 2 7 9 9 9 0 0 0 0 0 0 0 0 0 0 0 0 0 0 0 0 0 0 0 0 0 0 0 0 0 0 0 0 0 0 0 11 0 1 2 0
2 0 9 18 8 4 5 10 10 14 18 4 0 0 0 0 0 0 0 0 0 0 0 0 0 0 0 0 0 0 0 0 0 0 0 0 0 0 0 0 0 9 62 2 22 3 8
1 8 14 20 7 4 3 12 18 19 16 7 0 0 0 0 0 0 0 0 0 0 0 0 0 10 5 0 0 0 0 0 0 0 0 0 0 0 0 0 0 10 4 34 38 3 3
7 25 7 2 7 5 0 13 16 22 17 1 0 0 0 0 0 0 0 0 0 0 0 0 0 0 0 0 8 0 0 2 0 0 0 0 0 0 0 0 0 15 25 8 37 54 0
4 16 8 4 0 1 19 22 15 19 9 0 0 0 0 0 0 0 1 0 4 0 0 0 0 0 0 9 0 23 1 2 0 0 0 0 0 0 0 0 0 28 20 0 71 2 2
7 17 4 0 20 23 19 13 25 28 12 0 0 0 0 0 1 0 0 0 2 0 0 1 10 5 0 6 3 10 27 0 0 0 0 0 0 0 0 0 1 11 11 10 1 6 0
5 15 9 20 21 15 18 22 20 27 31 0 0 0 0 1 0 2 0 0 0 0 0 0 0 1 0 0 0 1 4 1 0 2 29 0 0 0 0 0 0 0 1 0 8 4 9
28 20 6 25 15 18 11 15 22 26 36 0 1 0 0 0 2 0 2 4 0 0 0 0 0 4 16 9 7 2 1 3 0 19 10 0 0 0 0 0 0 0 0 0 0 1 46
21 11 8 32 18 30 20 19 18 43 39 0 2 0 0 0 0 0 0 2 0 12 12 0 35 6 4 9 11 5 16 0 0 0 4 0 0 0 0 0 0 0 0 0 0 0 0
21 22 8 27 19 25 22 32 25 53 1 1 0 12 0 0 0 0 0 0 0 0 0 0 2 0 2 1 0 0 0 1 0 1 7 14 1 0 0 0 0 0 0 0 0 0 0
27 31 24 15 16 30 35 27 44 58 5 0 0 0 0 0 0 0 0 0 0 0 0 0 1 5 0 25 2 0 0 0 0 3 0 7 0 0 0 0 0 0 0 0 1 7 0
28 28 17 23 35 28 29 23 48 64 40 0 0 0 0 0 0 0 0 0 0 0 0 0 1 23 9 18 85 13 0 0 0 0 0 0 0 0 0 0 0 0 0 0 0 0 0
34 30 38 48 39 40 41 32 53 55 47 2 1 0 2 1 0 0 0 0 0 0 0 0 0 0 6 1 0 7 5 0 1 0 0 0 0 0 0 0 0 0 0 0 0 0 4
34 49 48 40 47 41 29 51 46 33 42 18 12 1 18 16 0 3 1 0 1 8 2 12 2 9 1 0 7 6 0 0 0 2 0 0 0 0 0 0 0 0 0 0 0 0 0
57 46 50 38 27 17 17 27 40 46 49 26 10 0 0 4 0 0 0 0 0 0 3 0 0 0 0 0 2 0 0 0 0 0 0 0 0 0 0 0 0 0 0 10 1 2 0
45 51 56 39 30 29 29 34 43 50 53 31 1 1 4 3 0 0 0 0 0 0 0 0 19 20 24 1 1 6 0 0 0 0 0 0 0 0 0 0 0 0 0 1 0 3 3

GFSGBSN_con_sbcape_081.txt.gz
CAPE
1 0 0 0 0 0 0 0 0 0 0 0 8 11 8 5 3 1 2 3 0 0 0 1 1 3 0 0 0 0 0 0 0 0 0 0 0 0 0 0 0 0 0 0 0 0 0
1 0 0 0 11 0 0 0 0 0 1 1 8 4 5 5 1 1 0 0 0 0 0 1 3 1 0 0 0 0 0 0 0 0 0 0 0 0 0 0 0 0 0 0 0 0 0
13 2 3 1 3 4 2 2 3 0 0 5 7 2 2 2 0 0 0 0 1 0 0 2 2 1 2 0 0 0 0 0 0 0 0 0 0 0 0 0 0 0 0 0 0 0 0
15 11 21 11 5 3 4 9 8 9 11 12 8 8 10 2 0 0 0 0 0 0 0 0 1 1 0 0 0 0 0 0 0 0 0 0 0 0 0 0 0 0 0 0 0 0 0
12 13 6 0 0 0 0 0 2 2 2 3 6 3 2 12 0 0 0 0 0 0 0 1 0 0 0 0 0 0 0 0 0 0 0 0 0 0 0 0 0 0 0 0 0 0 0
2 5 4 0 0 0 0 0 2 0 0 0 0 0 2 0 0 0 0 0 0 0 0 0 0 0 0 0 0 0 0 0 0 0 0 0 0 0 0 0 0 0 0 0 0 0 0
16 11 10 9 6 3 3 7 8 3 2 1 0 0 0 0 0 0 0 0 0 0 0 0 0 0 0 0 0 0 0 0 0 0 0 0 0 0 0 0 0 0 0 0 0 0 0
21 19 25 20 13 8 15 27 15 3 5 4 1 7 6 0 0 0 0 0 0 0 3 0 0 0 0 0 0 0 0 0 0 0 0 0 0 0 0 0 0 0 0 0 0 0 0
7 14 12 14 13 15 21 16 18 12 5 4 7 14 0 0 0 0 0 0 0 0 2 0 0 0 0 0 0 0 0 0 0 0 0 0 0 0 0 0 0 0 0 0 0 0 0
12 19 23 20 16 1 0 0 0 2 1 3 8 4 0 0 0 0 0 0 0 0 0 0 0 0 0 0 0 0 0 0 0 0 0 0 0 0 0 0 0 0 0 0 0 0 1
14 19 13 5 2 0 0 0 0 1 2 4 0 0 0 0 0 0 0 0 0 0 0 0 0 0 0 0 0 0 0 0 0 0 0 0 0 0 0 0 0 0 0 0 0 4 10
14 17 20 11 0 1 4 15 11 2 0 0 0 0 0 0 0 0 0 0 0 0 0 0 0 0 0 0 0 0 0 0 0 0 0 0 0 0 0 0 0 0 0 0 0 5 10
3 7 17 19 0 0 0 7 3 0 0 0 0 0 0 0 0 0 0 0 0 0 0 0 0 0 0 0 0 0 0 0 0 0 0 0 0 0 0 0 0 0 0 0 0 12 1
20 32 26 12 3 0 2 1 1 9 0 0 0 0 0 0 0 0 0 0 0 0 0 0 0 0 0 0 0 0 0 0 0 0 0 0 0 0 0 0 0 0 0 0 0 8 11
11 5 19 16 11 6 4 14 9 1 0 0 0 0 0 0 0 0 0 0 0 0 0 0 0 0 0 0 0 0 0 0 0 0 0 0 0 0 0 0 0 5 6 1 1 4 26
5 9 27 13 9 4 1 8 14 6 0 0 0 0 0 0 0 0 0 0 0 0 0 0 0 0 0 0 0 0 0 0 0 0 0 0 0 0 0 0 0 25 10 63 49 6 12
19 26 15 10 8 3 0 6 6 1 0 0 0 0 0 0 0 0 0 0 0 0 0 0 0 0 0 0 0 0 0 2 4 2 0 0 0 0 4 0 7 23 61 15 18 57 16
8 40 12 7 2 0 8 11 12 8 0 0 0 0 0 0 0 0 0 0 0 0 0 0 0 0 0 8 19 7 0 0 1 15 0 0 0 0 0 0 0 24 18 15 24 10 32
4 28 9 2 5 12 9 6 13 10 0 0 0 0 0 0 0 0 0 0 0 0 0 5 0 3 4 0 0 8 12 8 4 34 5 0 25 16 4 10 7 10 8 39 26 5 0
14 27 11 5 23 13 15 17 15 11 1 0 0 0 0 1 0 6 0 0 0 0 0 0 1 0 0 9 9 10 16 0 0 13 25 3 0 0 3 0 0 0 0 0 1 4 17
24 21 10 11 24 14 12 11 12 14 11 0 0 0 0 0 4 0 1 0 0 0 0 0 0 16 3 11 4 10 3 12 3 0 10 0 4 12 0 0 0 0 0 0 0 0 0
17 28 21 16 19 20 21 6 12 27 6 0 1 0 0 0 0 0 0 0 0 1 0 0 0 6 0 0 3 4 5 1 28 3 5 5 17 4 0 0 0 0 0 0 0 0 0
20 21 8 17 36 26 24 17 18 34 0 0 0 6 0 0 0 0 0 0 0 0 0 0 0 0 0 0 16 12 11 10 8 18 6 14 33 6 0 0 0 0 0 0 0 0 0
34 25 40 19 26 21 20 15 32 29 0 0 0 0 0 0 0 0 0 0 0 0 0 0 0 0 0 0 0 1 0 0 0 1 2 5 46 11 0 0 0 0 0 0 0 0 0
29 31 23 22 21 25 29 36 26 36 14 0 0 0 0 0 0 0 0 0 0 0 0 0 0 14 19 15 24 4 32 0 6 18 0 0 11 4 0 0 0 0 0 0 0 0 47
29 17 30 21 26 36 24 10 21 37 47 12 0 0 1 1 0 0 0 0 0 0 1 0 0 0 6 13 60 9 9 9 8 1 0 0 0 0 0 0 0 0 0 0 0 0 4
26 32 32 40 43 39 33 32 34 55 44 27 21 0 15 12 0 0 0 3 4 4 5 0 0 0 3 9 17 7 21 0 2 9 3 0 0 1 2 1 0 1 0 0 0 7 2
31 31 44 47 34 46 30 22 32 34 40 17 39 0 3 14 0 0 0 1 1 1 4 0 0 2 5 4 14 9 16 0 16 4 19 3 0 1 3 1 0 0 0 3 14 2 2
31 55 42 53 46 33 26 19 19 36 40 29 48 5 2 3 5 0 0 0 0 0 0 0 3 10 14 17 2 9 13 3 2 15 0 22 1 14 0 0 1 0 0 0 3 3 5

GFSGBSN_con_sbcape_084.txt.gz
CAPE
4 5 0 0 0 0 0 0 0 0 0 0 1 2 1 1 1 1 0 0 0 0 0 0 1 3 0 0 0 0 0 0 0 0 0 0 0 0 0 0 0 0 0 0 0 0 0
17 8 0 0 5 0 0 0 0 0 0 0 5 2 1 1 0 0 0 0 0 0 0 0 3 2 0 0 0 0 0 0 0 0 0 0 0 0 0 0 0 0 0 0 0 0 0
42 7 4 3 15 3 0 0 0 0 0 2 6 4 1 0 0 0 0 0 0 0 0 1 1 1 0 0 0 0 0 0 0 0 0 0 0 0 0 0 0 0 0 0 0 0 0
46 29 19 15 10 4 0 0 0 0 0 0 0 0 0 0 0 0 0 0 0 0 0 0 2 0 0 0 0 0 0 0 0 0 0 0 0 0 0 0 0 0 0 0 0 0 0
42 40 28 16 0 0 0 0 0 0 0 0 0 0 0 1 0 0 0 0 0 0 0 0 2 0 0 0 0 0 0 0 0 0 0 0 0 0 0 0 0 0 0 0 0 0 0
63 60 19 6 0 0 0 0 0 0 0 0 0 0 0 0 0 0 0 0 0 0 0 6 0 0 0 0 0 0 0 0 0 0 0 0 0 0 0 0 0 0 0 0 0 0 0
56 51 24 10 0 0 2 2 0 0 0 0 0 0 0 0 0 0 0 0 0 0 0 0 0 0 0 0 0 0 0 0 0 0 0 0 0 0 0 0 0 0 0 0 0 0 0
68 53 25 20 21 17 9 17 7 0 0 0 0 0 0 0 0 0 0 0 0 0 0 0 0 0 0 0 0 0 0 0 0 0 0 0 0 0 0 0 0 0 0 0 0 0 0
51 36 28 20 15 13 11 4 5 0 0 0 0 0 0 0 0 0 0 0 0 0 0 0 0 0 0 0 0 0 0 0 0 0 0 0 0 0 0 0 0 0 0 0 0 0 0
39 38 30 33 20 0 0 0 0 0 0 0 0 0 0 0 0 0 0 0 0 0 0 0 0 0 0 0 0 0 0 0 0 0 0 0 0 0 0 0 0 0 0 0 0 0 0
27 17 19 11 0 0 0 0 0 0 0 0 0 0 0 0 0 0 0 0 0 8 0 0 0 0 0 0 0 0 0 0 0 0 0 0 0 0 0 0 0 0 0 0 1 1 3
12 13 11 5 0 4 5 4 0 0 0 0 0 0 0 0 0 0 0 0 1 0 0 0 0 0 0 0 0 0 0 0 0 0 0 0 1 11 16 4 0 5 0 0 7 15 16
7 10 22 18 7 0 1 0 0 0 0 0 0 0 0 0 0 0 0 0 0 0 0 0 0 0 0 0 0 0 0 0 12 0 0 0 0 0 19 39 34 16 1 0 39 30 0
4 13 29 24 9 2 0 0 0 0 0 0 0 0 0 0 0 0 0 0 0 0 0 0 0 0 0 0 0 0 0 27 0 5 18 26 4 0 9 4 8 9 0 3 10 30 27
25 35 38 18 15 7 0 1 0 0 0 0 0 0 0 0 0 0 0 0 0 0 0 0 0 0 0 0 0 0 14 13 3 3 33 35 7 0 6 5 3 36 58 28 32 15 29
15 12 32 21 11 1 0 4 0 0 0 0 0 0 0 0 0 0 0 0 0 0 0 0 0 0 0 0 0 0 0 71 5 5 5 7 15 24 56 45 51 68 58 50 72 32 32
9 21 35 22 9 0 1 0 0 0 0 0 0 0 0 0 0 0 0 0 0 0 0 0 0 0 0 0 0 0 0 51 3 2 2 36 43 47 72 58 69 100 72 63 45 39 56
21 33 16 8 2 5 9 4 0 0 0 0 0 0 0 0 2 0 0 0 0 1 0 1 6 16 10 13 14 21 15 31 3 13 29 92 73 49 60 34 87 60 71 75 103 50 39
5 42 15 6 12 10 13 7 0 0 0 0 0 0 0 13 5 3 5 0 0 0 0 5 5 7 12 26 16 9 27 37 24 11 19 12 106 87 77 86 63 79 99 69 6 6 14
6 23 11 10 22 24 20 14 1 0 0 0 1 5 12 13 10 8 2 1 4 0 0 5 5 11 26 32 42 28 23 17 13 35 9 17 75 113 73 32 105 86 33 45 26 41 44
13 19 18 12 26 21 18 17 9 0 0 3 6 6 3 22 17 8 1 0 0 1 2 14 10 29 12 10 13 20 30 4 0 10 2 25 154 68 3 0 1 4 0 0 1 0 0
10 14 20 11 33 30 22 12 17 2 0 6 19 7 1 7 6 2 0 1 0 1 9 5 1 6 15 7 10 8 16 29 19 35 15 4 124 23 6 3 0 0 0 0 0 0 0
14 15 21 13 38 28 38 18 4 4 0 10 11 6 12 1 5 2 1 0 0 1 0 3 7 8 4 3 15 30 17 11 6 20 58 61 18 5 4 1 0 0 0 0 0 11 16
3 14 19 8 36 36 25 22 15 19 0 4 10 2 6 1 0 0 0 0 3 3 8 3 3 9 0 22 27 5 3 0 3 2 14 56 37 17 5 0 0 0 0 0 0 14 12
17 13 23 42 27 22 24 29 23 31 0 3 0 9 5 1 0 0 0 3 6 10 5 7 19 30 32 13 13 10 48 40 22 14 8 44 86 33 4 0 0 0 0 0 0 12 7
14 17 25 27 20 36 39 44 30 22 27 42 28 15 13 13 3 0 6 10 22 26 16 5 1 5 8 33 30 20 28 15 32 55 3 34 101 72 14 1 0 6 0 3 5 10 11
20 27 22 33 25 44 43 24 25 27 44 71 33 24 28 19 7 3 8 19 18 28 29 12 17 11 22 20 62 39 39 44 25 24 103 90 65 56 29 13 3 0 0 0 5 5 19
21 26 33 43 42 47 45 46 42 39 43 76 53 44 33 39 14 7 10 23 28 26 46 36 16 25 8 32 45 64 101 69 56 60 40 50 70 42 31 27 7 2 1 5 10 14 4
37 34 44 59 46 60 55 31 26 36 46 43 40 38 18 45 16 7 5 12 16 29 23 25 17 16 30 56 30 54 117 205 134 40 85 117 29 130 45 79 6 1 4 4 6 6 7

GFSGBSN_con_sbcape_090.txt.gz
CAPE
13 30 21 15 14 5 4 2 2 2 0 0 0 0 2 2 1 1 1 0 0 0 0 0 1 3 0 0 0 0 0 0 0 0 0 0 0 0 0 0 0 0 0 0 0 0 0
12 26 25 13 13 3 5 4 6 3 0 0 1 1 2 2 0 0 0 0 0 0 0 0 0 4 0 0 0 0 0 0 0 0 0 0 0 0 0 0 0 0 0 0 0 0 0
21 30 31 29 19 13 11 15 16 4 0 2 2 1 0 0 0 0 0 0 0 0 0 0 1 1 0 0 0 0 0 0 0 0 0 0 0 0 0 0 0 0 0 0 0 0 0
25 31 22 24 23 21 29 30 5 0 4 0 0 0 0 0 0 0 0 0 0 0 0 0 0 1 0 0 0 0 0 0 0 0 0 0 0 0 0 0 0 0 0 0 0 0 0
27 25 21 24 24 18 34 21 12 7 4 0 0 0 0 0 0 0 0 0 0 0 0 0 0 0 0 0 0 0 0 0 0 0 0 0 0 0 0 0 0 0 0 0 0 0 0
24 18 28 21 24 28 30 24 8 1 0 0 0 0 0 0 0 0 0 0 0 0 0 0 0 0 0 0 0 0 0 0 0 0 0 0 0 0 0 0 0 0 0 0 0 0 0
30 35 26 24 30 33 22 3 6 7 0 0 0 0 0 0 0 0 0 0 0 0 0 0 0 0 0 0 0 0 0 0 0 0 0 0 0 0 0 0 0 0 0 0 0 0 0
27 40 33 37 43 33 21 11 22 2 0 0 0 0 0 0 0 0 0 0 0 0 0 0 0 0 0 0 0 0 0 0 0 0 0 0 0 0 0 0 0 0 0 0 0 0 0
29 53 36 50 54 46 38 20 30 10 0 0 0 0 0 0 0 0 0 0 0 0 0 0 0 0 0 0 0 0 0 0 0 0 0 0 0 0 0 0 0 0 0 0 0 0 0
14 38 43 43 64 62 69 44 32 14 1 0 0 0 0 0 0 0 0 0 0 0 0 0 0 0 0 0 0 0 0 0 0 0 0 0 0 0 2 0 2 0 0 0 0 5 0
26 39 51 56 79 63 34 15 4 0 0 0 0 0 0 0 0 0 0 0 0 0 0 0 0 0 0 0 0 0 0 0 0 0 0 0 0 0 1 1 10 0 0 0 4 26 19
46 49 71 60 29 13 6 3 7 0 0 0 0 0 0 0 0 0 0 0 0 4 0 0 0 0 0 0 0 0 0 0 0 0 0 0 0 0 0 2 0 0 0 2 11 29 27
45 55 51 33 25 20 23 21 4 0 0 0 0 0 0 0 0 0 0 0 2 0 0 0 0 0 0 0 0 0 0 4 6 26 17 13 0 0 0 0 1 26 8 10 9 39 4
43 45 33 28 23 27 19 13 8 0 0 0 0 0 0 0 0 0 0 1 0 0 0 0 0 0 0 0 0 0 0 0 0 49 28 9 7 50 2 0 2 22 28 10 14 16 16
30 39 42 47 31 26 24 9 3 0 0 0 0 0 1 0 0 0 0 1 0 0 0 0 0 0 0 0 0 0 0 0 37 38 46 66 55 45 46 15 0 0 27 3 52 17 23
23 30 53 26 21 30 15 8 3 0 0 0 0 0 0 0 0 0 0 0 0 0 0 0 0 0 0 0 0 0 0 4 61 31 2 3 11 0 3 7 20 9 58 81 73 39 1
38 70 37 27 16 11 0 6 0 0 0 0 0 0 0 0 0 0 5 0 0 0 0 0 0 0 0 0 0 0 1 3 92 54 0 10 27 0 6 71 101 35 69 36 50 45 17
29 55 34 15 0 0 0 0 0 0 0 0 0 18 0 0 4 0 0 0 0 0 0 0 0 0 0 2 6 9 14 18 5 81 20 7 2 0 0 5 88 5 42 72 29 12 19
11 49 32 6 0 0 0 0 0 0 0 0 0 0 0 0 13 0 0 0 0 0 0 0 0 0 0 1 4 14 24 49 77 54 48 15 16 7 6 0 18 49 126 16 32 57 52
24 35 1 0 0 0 0 0 0 0 0 0 3 22 1 0 0 0 0 0 0 0 0 0 0 0 6 20 27 27 43 22 40 34 64 20 8 9 13 0 0 15 51 117 55 98 15
36 22 2 1 4 5 0 0 0 0 0 0 5 19 1 5 1 0 0 0 0 0 0 0 0 8 14 16 17 23 23 7 14 50 20 27 46 27 13 6 0 0 17 56 55 31 35
21 6 0 8 15 21 1 0 0 0 0 0 0 9 0 2 0 0 0 0 0 0 0 0 3 8 7 13 15 9 21 22 22 17 174 5 7 21 5 0 0 0 11 6 0 0 20
36 17 2 11 13 4 0 0 0 0 0 7 0 0 6 0 0 0 4 0 0 0 0 0 0 1 4 7 3 1 1 3 5 18 30 50 20 23 0 0 19 100 30 33 11 13 19
9 20 13 0 16 6 3 0 0 0 0 0 8 2 10 1 2 1 0 0 0 2 3 2 3 8 3 28 22 4 0 0 0 7 23 29 30 32 6 2 109 2 8 0 60 3 1
5 28 15 0 15 25 13 4 0 0 0 1 0 9 16 37 4 0 0 4 10 16 22 32 39 3 6 16 24 7 0 0 0 0 18 20 12 28 54 4 1 2 10 4 27 40 4
8 16 15 5 25 25 13 0 0 0 0 19 15 14 8 48 10 0 2 10 21 19 16 36 48 19 7 34 23 11 11 40 4 0 0 6 0 17 39 5 1 124 0 0 0 58 10
22 12 21 32 31 23 11 1 0 0 0 1 40 6 10 6 17 0 17 6 12 18 37 29 53 41 40 35 42 33 25 16 10 1 0 8 16 38 42 7 86 2 0 0 4 38 4
47 32 32 37 29 27 19 4 1 0 0 4 64 45 37 32 4 8 13 14 12 21 51 64 26 13 49 62 55 31 6 82 40 28 3 16 12 31 56 34 25 0 0 3 7 7 4
42 35 39 35 40 23 12 15 0 0 0 0 53 18 1 11 1 0 0 0 0 10 14 11 26 33 42 37 18 12 25 88 72 40 14 46 33 209 36 33 8 1 7 1 5 7 6

GFSGBSN_con_sbcape_093.txt.gz
CAPE
6 9 3 2 18 10 4 11 8 1 0 0 0 0 0 2 3 1 1 2 0 0 0 0 0 3 0 0 0 0 0 0 0 0 0 0 0 0 0 0 0 0 0 0 0 0 0
4 4 5 2 16 15 4 13 9 3 3 0 0 0 0 1 0 0 0 0 0 0 0 0 0 2 1 0 0 0 0 0 0 0 0 0 0 0 0 0 0 0 0 0 0 0 0
5 5 4 13 15 13 5 10 9 11 6 0 0 0 0 0 0 0 0 0 0 0 0 0 2 1 0 0 0 0 0 0 0 0 0 0 0 0 0 0 0 0 0 0 0 0 0
4 6 9 15 10 8 11 16 23 25 6 0 3 0 0 0 0 0 0 0 0 0 0 0 7 3 0 0 0 0 0 0 0 0 0 0 0 0 0 0 0 0 0 0 0 0 0
2 6 11 15 8 12 19 30 29 19 3 7 0 0 0 0 0 0 0 0 0 0 0 0 0 0 0 0 0 0 0 0 0 0 0 0 0 0 0 0 0 0 0 0 0 0 0
2 4 11 17 13 15 9 19 27 22 20 12 0 0 0 0 0 0 0 0 0 0 0 0 0 2 0 0 0 0 0 0 0 0 0 0 0 0 0 0 0 0 0 0 0 0 0
20 7 13 17 17 11 15 34 26 47 19 0 0 0 0 0 0 0 1 0 0 0 0 0 0 0 0 0 0 0 0 0 0 0 0 0 0 0 0 0 0 0 0 0 0 0 0
26 4 16 22 18 12 19 29 29 31 3 0 0 0 0 0 0 0 0 0 0 0 0 0 0 0 0 0 0 0 0 0 0 0 0 0 0 0 0 0 0 0 0 0 0 0 0
3 3 12 28 19 22 28 32 25 45 9 9 0 0 0 0 0 0 0 0 0 0 0 0 0 0 0 0 0 0 0 0 0 0 0 0 0 0 0 0 0 0 0 0 0 0 0
0 2 19 33 36 30 38 39 52 48 15 0 0 0 0 0 0 0 0 0 0 0 0 0 0 0 0 0 0 0 0 0 0 0 0 0 0 0 0 0 0 0 0 0 0 0 0
1 8 28 36 38 45 50 54 62 26 0 0 0 0 0 0 0 0 0 0 0 0 0 0 0 0 0 0 0 0 0 0 0 0 0 0 0 0 0 0 0 0 0 0 0 0 0
8 18 23 21 31 47 43 23 9 2 0 0 0 0 0 0 0 0 0 0 0 4 0 0 0 0 0 0 0 0 0 0 0 0 0 0 0 0 0 0 0 0 0 0 0 0 0
17 24 47 50 24 11 13 21 5 2 7 5 0 0 0 0 0 0 0 0 1 2 0 0 0 0 0 0 0 0 0 0 0 0 0 0 0 0 0 0 0 0 0 0 0 0 0
45 39 37 15 6 21 16 3 8 5 1 0 0 0 0 0 0 0 0 0 0 3 0 0 0 0 0 0 0 0 0 0 0 0 3 1 0 0 4 0 0 0 0 1 0 0 0
56 40 36 35 36 28 17 10 1 4 0 0 0 0 0 0 0 0 0 0 0 0 0 0 0 0 0 0 0 0 0 0 6 0 0 5 0 0 0 0 0 0 0 22 15 0 0
35 31 45 37 25 14 13 17 11 7 3 0 0 0 0 0 0 0 0 0 0 0 0 0 0 0 0 0 0 0 0 0 21 0 0 0 0 0 0 8 0 1 1 30 24 105 6
20 46 28 21 23 8 9 24 7 3 0 0 0 0 0 0 0 0 0 0 0 0 0 0 0 0 0 0 0 0 0 0 0 0 0 0 6 0 0 3 54 91 18 62 59 22 14
45 53 45 30 13 12 11 2 0 0 0 0 0 0 0 0 0 0 0 0 0 0 0 0 0 0 0 0 0 0 0 18 15 3 0 6 3 0 0 0 0 33 13 3 16 8 39
54 56 27 7 2 16 5 0 0 0 0 0 0 0 0 0 0 0 0 0 0 0 0 0 0 0 0 0 0 0 1 24 20 7 1 4 0 0 0 0 9 17 1 6 6 30 0
57 34 15 2 4 6 2 0 0 0 0 0 0 0 0 0 0 0 0 0 0 0 0 0 0 0 0 0 1 5 2 18 6 48 41 1 0 0 0 0 2 5 0 0 11 4 4
51 13 0 0 5 12 0 0 0 0 0 0 0 0 0 0 0 0 0 0 0 0 0 0 0 4 2 0 0 0 0 0 0 64 22 0 0 0 0 1 1 1 0 0 8 6 4
33 19 14 19 13 16 0 0 0 0 0 0 0 0 0 0 0 0 0 0 0 0 0 0 0 0 0 0 0 0 0 0 0 0 8 1 17 0 0 0 0 0 0 3 1 12 11
25 5 18 21 11 6 0 0 0 0 0 0 0 0 0 0 0 0 0 0 0 0 0 0 0 0 0 0 0 0 0 0 0 0 0 0 8 4 0 0 0 0 29 0 3 12 3
28 9 13 25 8 6 0 0 0 0 0 0 0 0 0 0 0 0 0 0 0 0 0 0 0 0 0 0 0 0 0 0 0 0 0 0 6 15 0 0 2 17 6 2 8 2 1
7 19 6 6 6 6 0 0 0 0 0 0 0 0 0 2 0 0 0 0 0 0 0 1 23 5 0 0 0 0 0 0 0 0 0 0 0 15 27 1 22 0 0 0 1 13 2
5 27 8 18 39 21 0 0 0 0 0 0 0 0 0 0 0 0 0 0 0 0 0 0 1 0 0 0 0 2 0 0 8 1 0 0 0 1 26 10 5 9 0 0 0 12 3
15 23 18 18 48 20 0 0 0 0 0 0 0 0 0 0 0 0 0 0 0 0 0 0 0 0 0 1 6 4 2 1 10 6 0 1 10 1 2 10 8 2 0 0 0 16 0
31 31 30 62 44 18 12 6 0 0 0 0 0 0 0 0 0 0 0 0 0 0 0 0 0 0 0 0 16 1 5 0 14 3 0 0 14 10 0 6 1 0 0 4 13 2 0
39 33 43 46 53 43 15 0 0 0 0 0 1 0 0 0 0 0 0 0 0 0 0 0 1 1 0 0 0 6 9 6 9 21 5 3 15 7 30 33 7 1 8 4 2 3 2

GFSGBSN_con_sbcape_096.txt.gz
CAPE
1 5 1 0 2 2 11 13 4 5 0 0 0 0 0 0 0 0 0 0 0 0 0 0 0 4 0 0 0 0 0 0 0 0 0 0 0 0 0 0 0 0 0 0 0 0 0
0 0 1 0 2 3 9 13 4 0 0 0 0 0 0 0 0 0 0 0 0 0 0 0 0 3 0 0 0 0 0 0 0 0 0 0 0 0 0 0 0 0 0 0 0 0 0
9 0 0 0 0 3 7 8 4 1 1 2 0 0 0 0 0 0 0 0 0 0 0 0 1 1 2 0 0 0 0 0 0 0 0 0 0 0 0 0 0 0 0 0 0 0 0
19 11 1 0 0 1 5 7 7 12 12 12 0 1 2 0 0 0 0 0 0 0 0 0 1 1 0 0 0 0 0 0 0 0 0 0 0 0 0 0 0 0 0 0 0 0 0
23 21 11 1 1 2 4 4 8 16 17 26 18 12 0 0 0 0 0 0 0 0 0 0 4 2 0 0 0 0 0 0 0 0 0 0 0 0 0 0 0 0 0 0 0 0 0
13 15 24 3 0 2 4 6 11 15 19 22 16 3 0 0 0 0 0 0 0 0 0 1 2 2 0 0 0 0 0 0 0 0 0 0 0 0 0 0 0 0 0 0 0 0 0
29 25 40 20 2 5 10 16 12 17 20 23 22 0 0 0 0 0 0 0 0 0 0 0 0 0 0 0 0 0 0 0 0 0 0 0 0 0 0 0 0 0 0 0 0 0 0
18 27 54 37 3 7 19 19 13 19 23 13 15 0 0 0 0 0 0 0 0 0 0 0 0 0 0 0 0 0 0 0 0 0 0 0 0 0 0 0 0 0 0 0 0 0 0
17 44 114 86 3 10 22 19 20 22 25 2 0 0 0 0 0 0 0 0 0 0 0 0 0 0 0 0 0 0 0 0 0 0 0 0 0 0 0 0 0 0 0 0 0 0 0
92 103 116 97 5 13 29 30 16 11 12 18 1 0 0 0 0 0 0 0 0 0 0 0 0 0 0 0 0 0 0 0 0 0 0 0 0 0 0 0 0 0 0 0 0 0 0
144 130 95 3 8 14 23 21 21 29 8 6 0 0 0 0 0 0 0 0 0 0 0 0 0 0 0 0 0 0 0 0 0 0 0 0 0 0 0 0 0 0 0 0 0 0 0
135 78 2 4 12 19 26 32 46 36 12 0 0 0 0 0 0 0 0 0 0 0 0 0 0 0 0 0 0 0 0 0 0 0 0 0 0 0 0 0 0 0 0 0 0 0 0
1 1 8 15 26 40 47 21 8 1 0 0 0 0 0 0 0 0 0 0 0 1 0 0 0 0 0 0 0 0 0 0 0 0 0 0 0 0 0 0 0 0 0 0 0 0 0
7 28 31 28 18 13 12 6 0 0 0 0 0 0 0 0 0 0 0 0 5 0 0 0 0 0 0 0 0 0 0 0 0 0 0 0 0 0 0 0 0 0 0 1 3 0 0
21 18 12 22 19 20 17 16 14 2 0 0 0 0 0 0 0 0 0 5 0 0 0 0 0 0 0 0 0 0 0 0 0 0 0 0 0 0 0 0 0 0 0 0 1 0 8
12 17 28 37 38 25 14 7 1 0 3 1 0 0 0 0 0 0 0 2 0 0 0 0 0 0 0 0 0 0 0 0 0 0 0 0 0 0 0 0 0 10 0 3 0 3 4
34 37 33 24 19 13 12 3 8 5 1 0 0 0 0 0 0 0 0 0 0 0 0 0 0 0 0 0 0 0 0 0 0 0 0 0 0 0 0 0 0 0 0 18 18 2 5
21 21 22 25 20 12 24 13 6 1 0 0 0 0 0 0 0 0 0 0 0 0 0 0 0 0 0 0 0 0 0 0 0 0 0 0 0 0 0 0 0 0 0 101 70 2 1
24 28 25 21 10 11 9 6 3 3 0 0 0 0 0 0 0 0 0 0 0 0 0 0 0 0 0 0 0 0 0 3 0 0 0 0 0 0 0 0 0 0 1 19 24 21 1
59 25 7 16 5 4 8 4 0 0 0 0 0 0 0 0 0 0 0 0 0 0 0 0 0 0 0 0 0 0 0 10 0 13 32 2 0 0 0 0 1 0 0 0 20 9 14
43 24 16 13 11 2 0 0 0 0 0 0 0 0 0 0 0 0 0 0 0 0 0 0 0 0 0 0 0 0 0 0 0 41 0 0 0 0 0 0 0 0 0 0 0 0 19
29 11 0 7 8 0 0 0 0 0 0 0 0 0 0 0 0 0 0 0 0 0 0 0 0 0 0 0 0 0 0 0 0 0 4 0 5 0 0 0 0 0 0 0 0 26 18
27 5 26 28 24 0 0 0 0 0 0 0 0 0 0 0 0 0 0 0 0 0 0 0 0 0 0 0 0 0 0 0 0 0 0 0 0 0 0 0 0 0 0 0 20 18 14
9 22 23 12 8 0 0 0 0 0 0 0 0 0 0 0 0 0 0 0 0 0 0 0 0 0 0 0 0 0 0 0 0 0 0 0 0 0 0 2 1 3 38 0 10 16 6
9 11 31 21 25 0 0 0 0 0 0 0 0 0 0 0 0 0 0 0 0 0 0 0 0 0 0 0 0 0 0 0 0 0 0 0 0 2 12 5 0 2 26 14 17 13 1
31 9 10 30 31 4 0 0 0 0 0 0 0 0 0 0 0 0 0 0 0 0 0 0 0 0 0 0 0 0 0 0 0 0 0 0 0 0 11 15 0 4 1 0 4 8 1
35 31 17 43 25 5 0 0 0 0 0 0 0 0 0 0 0 0 0 0 0 0 0 0 0 0 0 0 0 0 0 1 0 2 0 0 4 2 4 16 10 2 1 0 0 6 1
46 46 57 54 24 7 4 0 0 0 0 0 0 0 0 0 0 0 0 0 0 0 0 0 0 0 0 0 1 0 0 0 1 47 14 1 10 7 5 12 11 2 0 4 13 2 1
38 41 45 57 47 38 0 0 0 0 0 0 0 0 0 0 0 0 0 0 0 0 0 0 0 0 0 0 0 3 5 0 4 2 4 3 17 3 12 3 7 7 10 10 2 2 5